Time,TemperatureF,DewpointF,PressureIn,WindDirection,WindDirectionDegrees,WindSpeedMPH,WindSpeedGustMPH,Humidity,HourlyPrecipIn,Conditions,Clouds,dailyrainin,SoftwareType,DateUTC
2013-05-16 00:00:00,75.1,28.7,29.95,NW,312,3.8,5.8,18,0.00,CLR,,0.00,WeatherDisplay:10.37,2013-05-16 04:00:00,
2013-05-16 00:01:00,74.6,29.6,29.95,NW,306,3.8,5.8,19,0.00,CLR,,0.00,WeatherDisplay:10.37,2013-05-16 04:01:00,
2013-05-16 00:06:00,75.0,29.9,29.95,WNW,295,0.9,4.4,19,0.00,CLR,,0.00,WeatherDisplay:10.37,2013-05-16 04:06:00,
2013-05-16 00:07:00,74.9,29.8,29.95,WNW,298,2.4,8.1,19,0.00,CLR,,0.00,WeatherDisplay:10.37,2013-05-16 04:07:00,
2013-05-16 00:11:00,74.9,29.8,29.95,WSW,253,2.3,6.9,19,0.00,CLR,,0.00,WeatherDisplay:10.37,2013-05-16 04:11:00,
2013-05-16 00:12:00,74.9,29.8,29.95,West,272,3.0,10.0,19,0.00,CLR,,0.00,WeatherDisplay:10.37,2013-05-16 04:12:00,
2013-05-16 00:16:00,75.0,28.6,29.95,West,281,3.2,6.9,18,0.00,CLR,,0.00,WeatherDisplay:10.37,2013-05-16 04:16:00,
2013-05-16 00:17:00,74.9,28.5,29.95,NW,319,2.3,6.9,18,0.00,CLR,,0.00,WeatherDisplay:10.37,2013-05-16 04:17:00,
2013-05-16 00:21:00,74.7,28.3,29.95,West,264,2.6,5.8,18,0.00,CLR,,0.00,WeatherDisplay:10.37,2013-05-16 04:21:00,
2013-05-16 00:22:00,74.8,28.4,29.95,WNW,287,5.5,10.4,18,0.00,CLR,,0.00,WeatherDisplay:10.37,2013-05-16 04:22:00,
2013-05-16 00:26:00,75.1,28.7,29.95,NW,319,3.6,8.1,18,0.00,CLR,,0.00,WeatherDisplay:10.37,2013-05-16 04:26:00,
2013-05-16 00:27:00,75.1,28.7,29.95,NW,319,2.8,8.1,18,0.00,CLR,,0.00,WeatherDisplay:10.37,2013-05-16 04:27:00,
2013-05-16 00:32:00,74.8,29.8,29.95,West,275,1.8,6.9,19,0.00,CLR,,0.00,WeatherDisplay:10.37,2013-05-16 04:32:00,
2013-05-16 00:37:00,74.6,29.6,29.95,NW,306,4.8,5.8,19,0.00,CLR,,0.00,WeatherDisplay:10.37,2013-05-16 04:37:00,
2013-05-16 00:38:00,74.5,29.5,29.95,NW,325,2.5,6.9,19,0.00,CLR,,0.00,WeatherDisplay:10.37,2013-05-16 04:38:00,
2013-05-16 00:42:00,74.6,30.9,29.95,West,281,0.7,5.7,20,0.00,CLR,,0.00,WeatherDisplay:10.37,2013-05-16 04:42:00,
2013-05-16 00:43:00,74.6,30.9,29.95,WNW,298,3.1,5.8,20,0.00,CLR,,0.00,WeatherDisplay:10.37,2013-05-16 04:43:00,
2013-05-16 00:47:00,74.5,30.8,29.95,NW,308,4.1,6.9,20,0.00,CLR,,0.00,WeatherDisplay:10.37,2013-05-16 04:47:00,
2013-05-16 00:48:00,74.5,30.8,29.95,WSW,257,4.1,11.5,20,0.00,CLR,,0.00,WeatherDisplay:10.37,2013-05-16 04:48:00,
2013-05-16 00:52:00,74.5,30.8,29.95,WNW,288,3.7,6.9,20,0.00,CLR,,0.00,WeatherDisplay:10.37,2013-05-16 04:52:00,
2013-05-16 00:53:00,74.6,30.9,29.95,WNW,288,3.5,6.9,20,0.00,CLR,,0.00,WeatherDisplay:10.37,2013-05-16 04:53:00,
2013-05-16 00:58:00,74.5,29.5,29.95,WSW,256,1.5,5.8,19,0.00,CLR,,0.00,WeatherDisplay:10.37,2013-05-16 04:58:00,
2013-05-16 00:59:00,74.6,29.6,29.95,NW,308,5.2,5.8,19,0.00,CLR,,0.00,WeatherDisplay:10.37,2013-05-16 04:59:00,
2013-05-16 01:03:00,74.6,29.6,29.95,NW,313,7.3,8.1,19,0.00,CLR,,0.00,WeatherDisplay:10.37,2013-05-16 05:03:00,
2013-05-16 01:04:00,74.6,29.6,29.95,WNW,282,4.5,11.5,19,0.00,CLR,,0.00,WeatherDisplay:10.37,2013-05-16 05:04:00,
2013-05-16 01:08:00,74.6,29.6,29.95,West,261,3.5,8.1,19,0.00,CLR,,0.00,WeatherDisplay:10.37,2013-05-16 05:08:00,
2013-05-16 01:09:00,74.6,30.9,29.95,WNW,287,1.6,8.1,20,0.00,CLR,,0.00,WeatherDisplay:10.37,2013-05-16 05:09:00,
2013-05-16 01:13:00,74.6,30.9,29.95,West,278,2.8,6.9,20,0.00,CLR,,0.00,WeatherDisplay:10.37,2013-05-16 05:13:00,
2013-05-16 01:14:00,74.5,30.8,29.95,NW,309,2.3,6.9,20,0.00,CLR,,0.00,WeatherDisplay:10.37,2013-05-16 05:14:00,
2013-05-16 01:18:00,74.3,31.8,29.95,WNW,295,6.6,8.1,21,0.00,CLR,,0.00,WeatherDisplay:10.37,2013-05-16 05:18:00,
2013-05-16 01:19:00,74.2,31.7,29.95,West,278,3.1,8.1,21,0.00,CLR,,0.00,WeatherDisplay:10.37,2013-05-16 05:19:00,
2013-05-16 01:20:00,74.3,31.8,29.95,West,271,2.2,8.1,21,0.00,CLR,,0.00,WeatherDisplay:10.37,2013-05-16 05:20:00,
2013-05-16 01:23:00,74.2,31.7,29.95,WNW,287,2.0,5.8,21,0.00,CLR,,0.00,WeatherDisplay:10.37,2013-05-16 05:23:00,
2013-05-16 01:24:00,73.9,31.5,29.95,NNW,332,4.5,5.8,21,0.00,CLR,,0.00,WeatherDisplay:10.37,2013-05-16 05:24:00,
2013-05-16 01:25:00,74.1,31.6,29.95,NW,304,3.3,5.8,21,0.00,CLR,,0.00,WeatherDisplay:10.37,2013-05-16 05:25:00,
2013-05-16 01:28:00,74.2,32.9,29.95,WNW,287,3.2,5.8,22,0.00,CLR,,0.00,WeatherDisplay:10.37,2013-05-16 05:28:00,
2013-05-16 01:29:00,74.1,32.8,29.95,West,265,2.9,4.6,22,0.00,CLR,,0.00,WeatherDisplay:10.37,2013-05-16 05:29:00,
2013-05-16 01:30:00,74.0,32.7,29.95,West,265,1.6,4.6,22,0.00,CLR,,0.00,WeatherDisplay:10.37,2013-05-16 05:30:00,
2013-05-16 01:34:00,73.9,32.6,29.94,West,277,3.2,6.9,22,0.00,CLR,,0.00,WeatherDisplay:10.37,2013-05-16 05:34:00,
2013-05-16 01:35:00,74.0,32.7,29.95,West,274,5.0,8.1,22,0.00,CLR,,0.00,WeatherDisplay:10.37,2013-05-16 05:35:00,
2013-05-16 01:36:00,73.9,32.6,29.95,NW,306,4.0,8.1,22,0.00,CLR,,0.00,WeatherDisplay:10.37,2013-05-16 05:36:00,
2013-05-16 01:39:00,74.2,31.7,29.95,West,275,4.7,9.2,21,0.00,CLR,,0.00,WeatherDisplay:10.37,2013-05-16 05:39:00,
2013-05-16 01:40:00,74.0,31.6,29.94,WNW,284,5.7,8.1,21,0.00,CLR,,0.00,WeatherDisplay:10.37,2013-05-16 05:40:00,
2013-05-16 01:41:00,74.1,31.6,29.94,West,263,3.5,8.1,21,0.00,CLR,,0.00,WeatherDisplay:10.37,2013-05-16 05:41:00,
2013-05-16 01:44:00,74.1,31.6,29.94,West,265,3.6,9.2,21,0.00,CLR,,0.00,WeatherDisplay:10.37,2013-05-16 05:44:00,
2013-05-16 01:45:00,73.9,31.5,29.94,NW,323,3.9,9.2,21,0.00,CLR,,0.00,WeatherDisplay:10.37,2013-05-16 05:45:00,
2013-05-16 01:46:00,74.3,30.6,29.94,NNW,333,6.6,9.2,20,0.00,CLR,,0.00,WeatherDisplay:10.37,2013-05-16 05:46:00,
2013-05-16 01:49:00,74.2,30.5,29.94,West,278,5.5,9.2,20,0.00,CLR,,0.00,WeatherDisplay:10.37,2013-05-16 05:49:00,
2013-05-16 01:50:00,74.1,30.4,29.94,NW,304,4.8,9.2,20,0.00,CLR,,0.00,WeatherDisplay:10.37,2013-05-16 05:50:00,
2013-05-16 01:51:00,74.1,31.6,29.94,West,270,1.7,8.1,21,0.00,CLR,,0.00,WeatherDisplay:10.37,2013-05-16 05:51:00,
2013-05-16 01:54:00,74.1,31.6,29.94,WSW,237,6.0,11.3,21,0.00,CLR,,0.00,WeatherDisplay:10.37,2013-05-16 05:54:00,
2013-05-16 01:55:00,73.9,31.5,29.94,WSW,239,7.4,8.1,21,0.00,CLR,,0.00,WeatherDisplay:10.37,2013-05-16 05:55:00,
2013-05-16 01:56:00,73.9,31.5,29.94,NW,313,5.1,9.7,21,0.00,CLR,,0.00,WeatherDisplay:10.37,2013-05-16 05:56:00,
2013-05-16 01:59:00,74.1,30.4,29.94,WSW,247,6.7,10.4,20,0.00,CLR,,0.00,WeatherDisplay:10.37,2013-05-16 05:59:00,
2013-05-16 02:00:00,74.1,30.4,29.94,NW,323,6.1,10.4,20,0.00,CLR,,0.00,WeatherDisplay:10.37,2013-05-16 06:00:00,
2013-05-16 02:01:00,73.9,30.3,29.94,WNW,285,5.4,9.2,20,0.00,CLR,,0.00,WeatherDisplay:10.37,2013-05-16 06:01:00,
2013-05-16 02:02:00,74.2,31.7,29.94,NNW,330,2.6,6.6,21,0.00,CLR,,0.00,WeatherDisplay:10.37,2013-05-16 06:02:00,
2013-05-16 02:04:00,74.0,30.4,29.94,WNW,291,1.7,9.2,20,0.00,CLR,,0.00,WeatherDisplay:10.37,2013-05-16 06:04:00,
2013-05-16 02:05:00,74.0,31.6,29.94,WSW,248,2.6,4.6,21,0.00,CLR,,0.00,WeatherDisplay:10.37,2013-05-16 06:05:00,
2013-05-16 02:06:00,74.1,31.6,29.94,NW,306,1.2,5.9,21,0.00,CLR,,0.00,WeatherDisplay:10.37,2013-05-16 06:06:00,
2013-05-16 02:07:00,73.9,31.5,29.94,West,270,5.0,7.7,21,0.00,CLR,,0.00,WeatherDisplay:10.37,2013-05-16 06:07:00,
2013-05-16 02:09:00,73.8,31.4,29.94,NW,325,3.2,5.8,21,0.00,CLR,,0.00,WeatherDisplay:10.37,2013-05-16 06:09:00,
2013-05-16 02:10:00,74.1,31.6,29.94,NW,305,5.2,9.2,21,0.00,CLR,,0.00,WeatherDisplay:10.37,2013-05-16 06:10:00,
2013-05-16 02:11:00,73.6,31.2,29.94,WNW,299,5.4,10.4,21,0.00,CLR,,0.00,WeatherDisplay:10.37,2013-05-16 06:11:00,
2013-05-16 02:12:00,73.8,31.4,29.94,WNW,291,5.9,10.4,21,0.00,CLR,,0.00,WeatherDisplay:10.37,2013-05-16 06:12:00,
2013-05-16 02:15:00,73.9,31.5,29.94,NW,326,3.2,6.9,21,0.00,CLR,,0.00,WeatherDisplay:10.37,2013-05-16 06:15:00,
2013-05-16 02:16:00,74.0,31.6,29.94,WNW,285,5.4,10.4,21,0.00,CLR,,0.00,WeatherDisplay:10.37,2013-05-16 06:16:00,
2013-05-16 02:17:00,73.7,31.3,29.94,West,274,2.7,11.1,21,0.00,CLR,,0.00,WeatherDisplay:10.37,2013-05-16 06:17:00,
2013-05-16 02:18:00,73.8,32.6,29.94,NNW,333,6.2,11.5,22,0.00,CLR,,0.00,WeatherDisplay:10.37,2013-05-16 06:18:00,
2013-05-16 02:20:00,73.5,32.3,29.94,NW,315,2.0,5.8,22,0.00,CLR,,0.00,WeatherDisplay:10.37,2013-05-16 06:20:00,
2013-05-16 02:21:00,73.5,32.3,29.94,NW,305,3.6,6.9,22,0.00,CLR,,0.00,WeatherDisplay:10.37,2013-05-16 06:21:00,
2013-05-16 02:22:00,73.5,32.3,29.94,WNW,299,6.1,6.9,22,0.00,CLR,,0.00,WeatherDisplay:10.37,2013-05-16 06:22:00,
2013-05-16 02:23:00,73.6,32.4,29.94,West,271,5.9,9.2,22,0.00,CLR,,0.00,WeatherDisplay:10.37,2013-05-16 06:23:00,
2013-05-16 02:25:00,73.6,32.4,29.94,WNW,291,5.0,7.9,22,0.00,CLR,,0.00,WeatherDisplay:10.37,2013-05-16 06:25:00,
2013-05-16 02:26:00,73.6,32.4,29.94,West,261,5.1,9.2,22,0.00,CLR,,0.00,WeatherDisplay:10.37,2013-05-16 06:26:00,
2013-05-16 02:27:00,73.3,32.1,29.94,WSW,254,2.0,7.8,22,0.00,CLR,,0.00,WeatherDisplay:10.37,2013-05-16 06:27:00,
2013-05-16 02:28:00,73.5,32.3,29.94,NW,305,6.5,10.4,22,0.00,CLR,,0.00,WeatherDisplay:10.37,2013-05-16 06:28:00,
2013-05-16 02:30:00,73.0,33.0,29.94,NNW,330,5.0,8.1,23,0.00,CLR,,0.00,WeatherDisplay:10.37,2013-05-16 06:30:00,
2013-05-16 02:31:00,73.4,33.3,29.94,West,268,4.4,8.1,23,0.00,CLR,,0.00,WeatherDisplay:10.37,2013-05-16 06:31:00,
2013-05-16 02:32:00,73.2,33.2,29.94,WNW,284,4.6,6.9,23,0.00,CLR,,0.00,WeatherDisplay:10.37,2013-05-16 06:32:00,
2013-05-16 02:33:00,72.8,32.8,29.94,WNW,295,1.5,6.9,23,0.00,CLR,,0.00,WeatherDisplay:10.37,2013-05-16 06:33:00,
2013-05-16 02:36:00,73.3,33.2,29.94,NW,311,1.8,4.7,23,0.00,CLR,,0.00,WeatherDisplay:10.37,2013-05-16 06:36:00,
2013-05-16 02:38:00,72.7,33.8,29.94,NW,309,5.5,6.9,24,0.00,CLR,,0.00,WeatherDisplay:10.37,2013-05-16 06:38:00,
2013-05-16 02:41:00,72.7,33.8,29.94,NW,326,4.0,5.8,24,0.00,CLR,,0.00,WeatherDisplay:10.37,2013-05-16 06:41:00,
2013-05-16 02:43:00,72.5,33.6,29.94,NW,309,7.0,9.2,24,0.00,CLR,,0.00,WeatherDisplay:10.37,2013-05-16 06:43:00,
2013-05-16 02:46:00,72.3,34.5,29.94,NW,304,2.1,6.9,25,0.00,CLR,,0.00,WeatherDisplay:10.37,2013-05-16 06:46:00,
2013-05-16 02:48:00,72.6,34.7,29.94,WNW,298,4.9,8.1,25,0.00,CLR,,0.00,WeatherDisplay:10.37,2013-05-16 06:48:00,
2013-05-16 02:49:00,72.3,34.5,29.94,NNW,330,5.7,8.1,25,0.00,CLR,,0.00,WeatherDisplay:10.37,2013-05-16 06:49:00,
2013-05-16 02:51:00,72.4,34.6,29.94,WNW,292,4.8,6.9,25,0.00,CLR,,0.00,WeatherDisplay:10.37,2013-05-16 06:51:00,
2013-05-16 02:53:00,72.2,35.4,29.94,NNW,328,6.3,8.1,26,0.00,CLR,,0.00,WeatherDisplay:10.37,2013-05-16 06:53:00,
2013-05-16 02:54:00,72.1,35.3,29.94,NNW,330,5.0,8.1,26,0.00,CLR,,0.00,WeatherDisplay:10.37,2013-05-16 06:54:00,
2013-05-16 02:56:00,71.9,35.1,29.94,NNW,346,4.7,6.5,26,0.00,CLR,,0.00,WeatherDisplay:10.37,2013-05-16 06:56:00,
2013-05-16 02:59:00,71.6,35.8,29.94,NW,318,5.6,9.2,27,0.00,CLR,,0.00,WeatherDisplay:10.37,2013-05-16 06:59:00,
2013-05-16 03:01:00,71.9,36.1,29.94,West,281,2.5,3.5,27,0.00,CLR,,0.00,WeatherDisplay:10.37,2013-05-16 07:01:00,
2013-05-16 03:02:00,71.6,35.8,29.94,West,281,2.0,4.6,27,0.00,CLR,,0.00,WeatherDisplay:10.37,2013-05-16 07:02:00,
2013-05-16 03:04:00,71.6,36.8,29.94,NW,318,3.0,5.8,28,0.00,CLR,,0.00,WeatherDisplay:10.37,2013-05-16 07:04:00,
2013-05-16 03:07:00,71.3,36.5,29.94,WNW,302,0.0,0.0,28,0.00,CLR,,0.00,WeatherDisplay:10.37,2013-05-16 07:07:00,
2013-05-16 03:09:00,71.0,37.1,29.94,NNW,333,3.1,5.8,29,0.00,CLR,,0.00,WeatherDisplay:10.37,2013-05-16 07:09:00,
2013-05-16 03:10:00,71.2,37.3,29.94,NNW,339,3.6,8.1,29,0.00,CLR,,0.00,WeatherDisplay:10.37,2013-05-16 07:10:00,
2013-05-16 03:12:00,70.7,37.7,29.94,NNW,329,0.8,3.5,30,0.00,CLR,,0.00,WeatherDisplay:10.37,2013-05-16 07:12:00,
2013-05-16 03:15:00,70.6,37.6,29.94,NNW,335,4.0,8.1,30,0.00,CLR,,0.00,WeatherDisplay:10.37,2013-05-16 07:15:00,
2013-05-16 03:17:00,70.5,37.6,29.94,NNW,335,0.0,0.0,30,0.00,CLR,,0.00,WeatherDisplay:10.37,2013-05-16 07:17:00,
2013-05-16 03:20:00,70.5,37.6,29.93,NNW,335,0.0,0.0,30,0.00,CLR,,0.00,WeatherDisplay:10.37,2013-05-16 07:20:00,
2013-05-16 03:22:00,70.5,38.4,29.93,WNW,291,2.9,5.8,31,0.00,CLR,,0.00,WeatherDisplay:10.37,2013-05-16 07:22:00,
2013-05-16 03:23:00,70.5,38.4,29.93,NW,323,0.2,1.1,31,0.00,CLR,,0.00,WeatherDisplay:10.37,2013-05-16 07:23:00,
2013-05-16 03:25:00,70.5,38.4,29.93,NNW,336,4.2,6.9,31,0.00,CLR,,0.00,WeatherDisplay:10.37,2013-05-16 07:25:00,
2013-05-16 03:27:00,70.3,37.4,29.93,NNW,346,5.0,6.9,30,0.00,CLR,,0.00,WeatherDisplay:10.37,2013-05-16 07:27:00,
2013-05-16 03:28:00,70.6,38.5,29.93,NNW,342,4.2,5.8,31,0.00,CLR,,0.00,WeatherDisplay:10.37,2013-05-16 07:28:00,
2013-05-16 03:30:00,70.3,38.2,29.93,North,350,0.0,3.5,31,0.00,CLR,,0.00,WeatherDisplay:10.37,2013-05-16 07:30:00,
2013-05-16 03:32:00,69.9,38.7,29.93,NW,319,2.4,4.6,32,0.00,CLR,,0.00,WeatherDisplay:10.37,2013-05-16 07:32:00,
2013-05-16 03:33:00,70.2,38.9,29.93,NW,323,0.7,5.8,32,0.00,CLR,,0.00,WeatherDisplay:10.37,2013-05-16 07:33:00,
2013-05-16 03:35:00,69.8,38.6,29.93,NW,323,0.0,3.5,32,0.00,CLR,,0.00,WeatherDisplay:10.37,2013-05-16 07:35:00,
2013-05-16 03:37:00,69.9,38.7,29.93,NNW,347,1.7,5.2,32,0.00,CLR,,0.00,WeatherDisplay:10.37,2013-05-16 07:37:00,
2013-05-16 03:38:00,69.8,38.6,29.93,NW,318,3.0,5.8,32,0.00,CLR,,0.00,WeatherDisplay:10.37,2013-05-16 07:38:00,
2013-05-16 03:40:00,69.8,38.6,29.93,NNW,347,1.5,4.6,32,0.00,CLR,,0.00,WeatherDisplay:10.37,2013-05-16 07:40:00,
2013-05-16 03:42:00,69.8,38.6,29.93,NW,312,5.8,8.1,32,0.00,CLR,,0.00,WeatherDisplay:10.37,2013-05-16 07:42:00,
2013-05-16 03:43:00,70.1,38.0,29.93,NNW,337,5.5,8.1,31,0.00,CLR,,0.00,WeatherDisplay:10.37,2013-05-16 07:43:00,
2013-05-16 03:45:00,69.8,37.8,29.93,NNW,330,5.2,9.2,31,0.00,CLR,,0.00,WeatherDisplay:10.37,2013-05-16 07:45:00,
2013-05-16 03:46:00,69.9,38.7,29.93,NW,320,5.2,8.4,32,0.00,CLR,,0.00,WeatherDisplay:10.37,2013-05-16 07:46:00,
2013-05-16 03:47:00,69.9,37.9,29.93,NNW,337,4.5,6.9,31,0.00,CLR,,0.00,WeatherDisplay:10.37,2013-05-16 07:47:00,
2013-05-16 03:48:00,69.9,38.7,29.93,NW,305,0.9,3.5,32,0.00,CLR,,0.00,WeatherDisplay:10.37,2013-05-16 07:48:00,
2013-05-16 03:49:00,70.1,38.9,29.93,NW,309,1.3,6.3,32,0.00,CLR,,0.00,WeatherDisplay:10.37,2013-05-16 07:49:00,
2013-05-16 03:50:00,69.9,38.7,29.93,NNW,333,6.2,10.4,32,0.00,CLR,,0.00,WeatherDisplay:10.37,2013-05-16 07:50:00,
2013-05-16 03:51:00,70.0,38.8,29.93,North,350,3.5,10.4,32,0.00,CLR,,0.00,WeatherDisplay:10.37,2013-05-16 07:51:00,
2013-05-16 03:53:00,69.8,39.4,29.93,WNW,294,4.1,8.1,33,0.00,CLR,,0.00,WeatherDisplay:10.37,2013-05-16 07:53:00,
2013-05-16 03:54:00,70.0,39.6,29.93,NW,316,4.6,8.1,33,0.00,CLR,,0.00,WeatherDisplay:10.37,2013-05-16 07:54:00,
2013-05-16 03:56:00,69.7,39.3,29.93,NW,312,5.1,6.9,33,0.00,CLR,,0.00,WeatherDisplay:10.37,2013-05-16 07:56:00,
2013-05-16 03:58:00,69.7,39.3,29.93,WNW,288,5.3,9.2,33,0.00,CLR,,0.00,WeatherDisplay:10.37,2013-05-16 07:58:00,
2013-05-16 03:59:00,69.5,38.3,29.93,North,1,5.6,10.4,32,0.00,CLR,,0.00,WeatherDisplay:10.37,2013-05-16 07:59:00,
2013-05-16 04:01:00,69.6,37.6,29.93,WNW,299,6.0,7.4,31,0.00,CLR,,0.00,WeatherDisplay:10.37,2013-05-16 08:01:00,
2013-05-16 04:02:00,69.8,37.8,29.93,NW,306,6.2,9.2,31,0.00,CLR,,0.00,WeatherDisplay:10.37,2013-05-16 08:02:00,
2013-05-16 04:03:00,69.8,36.9,29.93,WNW,302,6.5,9.2,30,0.00,CLR,,0.00,WeatherDisplay:10.37,2013-05-16 08:03:00,
2013-05-16 04:04:00,70.1,37.2,29.93,WNW,294,4.3,9.2,30,0.00,CLR,,0.00,WeatherDisplay:10.37,2013-05-16 08:04:00,
2013-05-16 04:07:00,70.0,37.1,29.93,WNW,287,5.4,8.1,30,0.00,CLR,,0.00,WeatherDisplay:10.37,2013-05-16 08:07:00,
2013-05-16 04:08:00,70.3,37.4,29.93,NW,318,3.8,8.1,30,0.00,CLR,,0.00,WeatherDisplay:10.37,2013-05-16 08:08:00,
2013-05-16 04:09:00,70.2,37.3,29.93,WNW,284,5.5,6.9,30,0.00,CLR,,0.00,WeatherDisplay:10.37,2013-05-16 08:09:00,
2013-05-16 04:10:00,69.8,36.9,29.93,WNW,284,5.9,6.9,30,0.00,CLR,,0.00,WeatherDisplay:10.37,2013-05-16 08:10:00,
2013-05-16 04:12:00,70.0,37.1,29.93,WNW,291,6.1,6.9,30,0.00,CLR,,0.00,WeatherDisplay:10.37,2013-05-16 08:12:00,
2013-05-16 04:13:00,70.2,37.3,29.93,WNW,301,4.6,9.2,30,0.00,CLR,,0.00,WeatherDisplay:10.37,2013-05-16 08:13:00,
2013-05-16 04:14:00,70.2,37.3,29.93,NNW,335,5.0,8.1,30,0.00,CLR,,0.00,WeatherDisplay:10.37,2013-05-16 08:14:00,
2013-05-16 04:15:00,70.1,37.2,29.93,WNW,298,4.5,8.1,30,0.00,CLR,,0.00,WeatherDisplay:10.37,2013-05-16 08:15:00,
2013-05-16 04:17:00,70.1,36.3,29.93,NNW,339,5.5,8.1,29,0.00,CLR,,0.00,WeatherDisplay:10.37,2013-05-16 08:17:00,
2013-05-16 04:18:00,70.3,36.5,29.93,NNW,330,3.7,8.1,29,0.00,CLR,,0.00,WeatherDisplay:10.37,2013-05-16 08:18:00,
2013-05-16 04:19:00,70.1,36.3,29.93,WNW,301,5.4,6.9,29,0.00,CLR,,0.00,WeatherDisplay:10.37,2013-05-16 08:19:00,
2013-05-16 04:20:00,70.1,36.3,29.93,NW,320,4.9,6.9,29,0.00,CLR,,0.00,WeatherDisplay:10.37,2013-05-16 08:20:00,
2013-05-16 04:22:00,70.4,36.6,29.93,NW,319,4.7,6.9,29,0.00,CLR,,0.00,WeatherDisplay:10.37,2013-05-16 08:22:00,
2013-05-16 04:23:00,70.1,35.5,29.94,WNW,301,4.6,8.7,28,0.00,CLR,,0.00,WeatherDisplay:10.37,2013-05-16 08:23:00,
2013-05-16 04:24:00,70.5,35.8,29.94,NW,325,5.4,8.1,28,0.00,CLR,,0.00,WeatherDisplay:10.37,2013-05-16 08:24:00,
2013-05-16 04:25:00,70.5,35.8,29.94,NNW,347,5.5,8.1,28,0.00,CLR,,0.00,WeatherDisplay:10.37,2013-05-16 08:25:00,
2013-05-16 04:28:00,70.7,36.0,29.94,NW,318,2.4,10.4,28,0.00,CLR,,0.00,WeatherDisplay:10.37,2013-05-16 08:28:00,
2013-05-16 04:30:00,70.2,35.5,29.94,NNW,329,2.7,6.9,28,0.00,CLR,,0.00,WeatherDisplay:10.37,2013-05-16 08:30:00,
2013-05-16 04:33:00,70.1,35.5,29.93,NNW,329,0.9,6.9,28,0.00,CLR,,0.00,WeatherDisplay:10.37,2013-05-16 08:33:00,
2013-05-16 04:35:00,70.2,36.4,29.94,West,280,0.9,8.1,29,0.00,CLR,,0.00,WeatherDisplay:10.37,2013-05-16 08:35:00,
2013-05-16 04:38:00,70.2,35.5,29.94,NW,316,5.3,10.4,28,0.00,CLR,,0.00,WeatherDisplay:10.37,2013-05-16 08:38:00,
2013-05-16 04:40:00,70.2,35.5,29.94,NW,323,6.6,8.1,28,0.00,CLR,,0.00,WeatherDisplay:10.37,2013-05-16 08:40:00,
2013-05-16 04:41:00,70.3,35.6,29.94,WNW,294,6.7,9.2,28,0.00,CLR,,0.00,WeatherDisplay:10.37,2013-05-16 08:41:00,
2013-05-16 04:43:00,70.4,34.8,29.94,NW,326,5.9,9.2,27,0.00,CLR,,0.00,WeatherDisplay:10.37,2013-05-16 08:43:00,
2013-05-16 04:44:00,70.3,34.7,29.94,NNW,329,6.3,9.2,27,0.00,CLR,,0.00,WeatherDisplay:10.37,2013-05-16 08:44:00,
2013-05-16 04:45:00,70.3,34.7,29.94,NNW,339,4.0,8.1,27,0.00,CLR,,0.00,WeatherDisplay:10.37,2013-05-16 08:45:00,
2013-05-16 04:46:00,70.6,35.0,29.94,North,360,3.7,8.1,27,0.00,CLR,,0.00,WeatherDisplay:10.37,2013-05-16 08:46:00,
2013-05-16 04:48:00,70.7,34.1,29.94,WNW,298,7.2,9.2,26,0.00,CLR,,0.00,WeatherDisplay:10.37,2013-05-16 08:48:00,
2013-05-16 04:49:00,70.5,33.9,29.94,WSW,257,5.5,10.4,26,0.00,CLR,,0.00,WeatherDisplay:10.37,2013-05-16 08:49:00,
2013-05-16 04:50:00,70.5,33.0,29.94,West,280,7.0,11.0,25,0.00,CLR,,0.00,WeatherDisplay:10.37,2013-05-16 08:50:00,
2013-05-16 04:51:00,70.7,33.1,29.94,NW,306,7.6,9.2,25,0.00,CLR,,0.00,WeatherDisplay:10.37,2013-05-16 08:51:00,
2013-05-16 04:52:00,70.5,33.0,29.94,NNW,333,7.6,11.5,25,0.00,CLR,,0.00,WeatherDisplay:10.37,2013-05-16 08:52:00,
2013-05-16 04:54:00,70.5,33.9,29.94,NW,320,3.3,5.8,26,0.00,CLR,,0.00,WeatherDisplay:10.37,2013-05-16 08:54:00,
2013-05-16 04:56:00,70.4,33.9,29.94,NW,322,1.9,8.1,26,0.00,CLR,,0.00,WeatherDisplay:10.37,2013-05-16 08:56:00,
2013-05-16 04:57:00,70.7,34.1,29.94,NNW,336,4.8,6.9,26,0.00,CLR,,0.00,WeatherDisplay:10.37,2013-05-16 08:57:00,
2013-05-16 04:59:00,70.5,33.9,29.94,NNW,330,2.9,5.8,26,0.00,CLR,,0.00,WeatherDisplay:10.37,2013-05-16 08:59:00,
2013-05-16 05:01:00,70.5,33.9,29.94,NNW,332,5.9,9.2,26,0.00,CLR,,0.00,WeatherDisplay:10.37,2013-05-16 09:01:00,
2013-05-16 05:02:00,70.3,33.8,29.94,WNW,295,3.5,6.5,26,0.00,CLR,,0.00,WeatherDisplay:10.37,2013-05-16 09:02:00,
2013-05-16 05:03:00,70.3,32.8,29.94,North,352,5.7,9.2,25,0.00,CLR,,0.00,WeatherDisplay:10.37,2013-05-16 09:03:00,
2013-05-16 05:04:00,70.5,33.0,29.94,WNW,284,5.3,9.2,25,0.00,CLR,,0.00,WeatherDisplay:10.37,2013-05-16 09:04:00,
2013-05-16 05:06:00,70.3,33.8,29.94,NNW,343,1.9,9.2,26,0.00,CLR,,0.00,WeatherDisplay:10.37,2013-05-16 09:06:00,
2013-05-16 05:07:00,70.3,33.8,29.94,NNW,343,0.0,3.5,26,0.00,CLR,,0.00,WeatherDisplay:10.37,2013-05-16 09:07:00,
2013-05-16 05:09:00,70.2,33.7,29.94,North,359,4.7,5.8,26,0.00,CLR,,0.00,WeatherDisplay:10.37,2013-05-16 09:09:00,
2013-05-16 05:11:00,70.0,33.5,29.94,NW,308,1.0,5.8,26,0.00,CLR,,0.00,WeatherDisplay:10.37,2013-05-16 09:11:00,
2013-05-16 05:12:00,70.0,33.5,29.94,NW,308,2.5,6.0,26,0.00,CLR,,0.00,WeatherDisplay:10.37,2013-05-16 09:12:00,
2013-05-16 05:14:00,70.3,33.8,29.94,NNW,336,2.8,5.7,26,0.00,CLR,,0.00,WeatherDisplay:10.37,2013-05-16 09:14:00,
2013-05-16 05:17:00,69.9,34.4,29.94,NW,322,2.1,4.6,27,0.00,CLR,,0.00,WeatherDisplay:10.37,2013-05-16 09:17:00,
2013-05-16 05:19:00,69.8,34.3,29.94,WNW,292,4.5,5.5,27,0.00,CLR,,0.00,WeatherDisplay:10.37,2013-05-16 09:19:00,
2013-05-16 05:22:00,69.4,34.9,29.94,NNW,330,3.9,5.8,28,0.00,CLR,,0.00,WeatherDisplay:10.37,2013-05-16 09:22:00,
2013-05-16 05:24:00,69.4,34.9,29.94,West,271,0.0,0.0,28,0.00,CLR,,0.00,WeatherDisplay:10.37,2013-05-16 09:24:00,
2013-05-16 05:27:00,69.4,35.7,29.94,NNW,344,0.0,0.0,29,0.00,CLR,,0.00,WeatherDisplay:10.37,2013-05-16 09:27:00,
2013-05-16 05:29:00,69.0,36.3,29.94,NW,325,2.8,5.8,30,0.00,CLR,,0.00,WeatherDisplay:10.37,2013-05-16 09:29:00,
2013-05-16 05:32:00,68.8,36.9,29.94,WNW,292,2.0,5.8,31,0.00,CLR,,0.00,WeatherDisplay:10.37,2013-05-16 09:32:00,
2013-05-16 05:34:00,68.4,36.6,29.94,NNW,342,0.4,4.6,31,0.00,CLR,,0.00,WeatherDisplay:10.37,2013-05-16 09:34:00,
2013-05-16 05:35:00,68.4,36.6,29.94,NNW,342,0.4,3.5,31,0.00,CLR,,0.00,WeatherDisplay:10.37,2013-05-16 09:35:00,
2013-05-16 05:37:00,68.3,37.3,29.94,NNW,339,4.2,4.6,32,0.00,CLR,,0.00,WeatherDisplay:10.37,2013-05-16 09:37:00,
2013-05-16 05:38:00,68.4,36.6,29.94,WNW,299,4.2,5.8,31,0.00,CLR,,0.00,WeatherDisplay:10.37,2013-05-16 09:38:00,
2013-05-16 05:39:00,68.4,36.6,29.94,WNW,289,3.4,5.8,31,0.00,CLR,,0.00,WeatherDisplay:10.37,2013-05-16 09:39:00,
2013-05-16 05:40:00,68.1,36.3,29.94,NW,304,1.8,5.8,31,0.00,CLR,,0.00,WeatherDisplay:10.37,2013-05-16 09:40:00,
2013-05-16 05:43:00,68.4,36.6,29.94,WNW,298,1.6,5.8,31,0.00,CLR,,0.00,WeatherDisplay:10.37,2013-05-16 09:43:00,
2013-05-16 05:44:00,68.1,36.3,29.94,West,281,3.7,6.9,31,0.00,CLR,,0.00,WeatherDisplay:10.37,2013-05-16 09:44:00,
2013-05-16 05:45:00,68.5,36.7,29.94,West,278,2.0,6.9,31,0.00,CLR,,0.00,WeatherDisplay:10.37,2013-05-16 09:45:00,
2013-05-16 05:48:00,68.0,36.2,29.94,WNW,284,4.3,8.1,31,0.00,CLR,,0.00,WeatherDisplay:10.37,2013-05-16 09:48:00,
2013-05-16 05:49:00,67.9,36.1,29.94,NNW,340,0.6,3.5,31,0.00,CLR,,0.00,WeatherDisplay:10.37,2013-05-16 09:49:00,
2013-05-16 05:50:00,68.0,36.2,29.94,NW,319,1.6,3.5,31,0.00,CLR,,0.00,WeatherDisplay:10.37,2013-05-16 09:50:00,
2013-05-16 05:53:00,68.0,36.2,29.94,NW,319,0.0,0.0,31,0.00,CLR,,0.00,WeatherDisplay:10.37,2013-05-16 09:53:00,
2013-05-16 05:54:00,67.8,35.2,29.94,NW,319,0.0,0.0,30,0.00,CLR,,0.00,WeatherDisplay:10.37,2013-05-16 09:54:00,
2013-05-16 05:55:00,68.0,35.4,29.94,NW,325,3.7,8.1,30,0.00,CLR,,0.00,WeatherDisplay:10.37,2013-05-16 09:55:00,
2013-05-16 05:58:00,68.2,35.6,29.95,NW,311,1.4,6.9,30,0.00,CLR,,0.00,WeatherDisplay:10.37,2013-05-16 09:58:00,
2013-05-16 05:59:00,67.7,35.1,29.95,NNW,344,2.6,5.4,30,0.00,CLR,,0.00,WeatherDisplay:10.37,2013-05-16 09:59:00,
2013-05-16 06:00:00,67.9,35.3,29.94,WNW,291,2.7,6.9,30,0.00,CLR,,0.00,WeatherDisplay:10.37,2013-05-16 10:00:00,
2013-05-16 06:03:00,67.9,35.3,29.94,NNW,340,1.2,5.6,30,0.00,CLR,,0.00,WeatherDisplay:10.37,2013-05-16 10:03:00,
2013-05-16 06:04:00,67.8,35.2,29.94,NNW,343,2.6,8.1,30,0.00,CLR,,0.00,WeatherDisplay:10.37,2013-05-16 10:04:00,
2013-05-16 06:05:00,68.0,34.5,29.95,WNW,299,5.3,8.1,29,0.00,CLR,,0.00,WeatherDisplay:10.37,2013-05-16 10:05:00,
2013-05-16 06:06:00,67.8,33.5,29.95,WNW,298,5.1,8.1,28,0.00,CLR,,0.00,WeatherDisplay:10.37,2013-05-16 10:06:00,
2013-05-16 06:08:00,67.9,33.6,29.95,WNW,291,5.2,6.9,28,0.00,CLR,,0.00,WeatherDisplay:10.37,2013-05-16 10:08:00,
2013-05-16 06:09:00,68.2,33.8,29.95,WNW,289,5.2,9.2,28,0.00,CLR,,0.00,WeatherDisplay:10.37,2013-05-16 10:09:00,
2013-05-16 06:10:00,68.0,33.7,29.95,NW,308,0.7,7.0,28,0.00,CLR,,0.00,WeatherDisplay:10.37,2013-05-16 10:10:00,
2013-05-16 06:11:00,68.3,33.0,29.95,NNW,347,4.4,9.2,27,0.00,CLR,,0.00,WeatherDisplay:10.37,2013-05-16 10:11:00,
2013-05-16 06:13:00,68.2,33.8,29.95,NNW,328,4.9,8.1,28,0.00,CLR,,0.00,WeatherDisplay:10.37,2013-05-16 10:13:00,
2013-05-16 06:14:00,68.4,34.0,29.95,NW,313,1.8,6.9,28,0.00,CLR,,0.00,WeatherDisplay:10.37,2013-05-16 10:14:00,
2013-05-16 06:15:00,68.2,33.8,29.95,NNW,330,2.7,5.8,28,0.00,CLR,,0.00,WeatherDisplay:10.37,2013-05-16 10:15:00,
2013-05-16 06:16:00,68.0,32.7,29.95,NW,316,5.7,9.2,27,0.00,CLR,,0.00,WeatherDisplay:10.37,2013-05-16 10:16:00,
2013-05-16 06:18:00,68.5,32.2,29.95,NW,323,7.3,12.7,26,0.00,CLR,,0.00,WeatherDisplay:10.37,2013-05-16 10:18:00,
2013-05-16 06:19:00,68.3,31.1,29.95,NW,322,6.5,12.7,25,0.00,CLR,,0.00,WeatherDisplay:10.37,2013-05-16 10:19:00,
2013-05-16 06:20:00,68.7,31.4,29.95,NW,312,6.2,8.1,25,0.00,CLR,,0.00,WeatherDisplay:10.37,2013-05-16 10:20:00,
2013-05-16 06:22:00,68.6,31.3,29.95,West,265,6.6,9.2,25,0.00,CLR,,0.00,WeatherDisplay:10.37,2013-05-16 10:22:00,
2013-05-16 06:24:00,68.5,31.3,29.95,WNW,291,5.9,8.1,25,0.00,CLR,,0.00,WeatherDisplay:10.37,2013-05-16 10:24:00,
2013-05-16 06:25:00,68.6,30.3,29.95,North,4,5.9,8.1,24,0.00,CLR,,0.00,WeatherDisplay:10.37,2013-05-16 10:25:00,
2013-05-16 06:27:00,68.9,31.6,29.95,WNW,296,2.8,6.9,25,0.00,CLR,,0.00,WeatherDisplay:10.37,2013-05-16 10:27:00,
2013-05-16 06:29:00,68.9,30.6,29.95,WNW,285,5.4,8.1,24,0.00,CLR,,0.00,WeatherDisplay:10.37,2013-05-16 10:29:00,
2013-05-16 06:30:00,68.7,30.4,29.95,NW,305,4.6,8.1,24,0.00,CLR,,0.00,WeatherDisplay:10.37,2013-05-16 10:30:00,
2013-05-16 06:31:00,68.8,30.5,29.95,WNW,301,6.5,9.2,24,0.00,CLR,,0.00,WeatherDisplay:10.37,2013-05-16 10:31:00,
2013-05-16 06:32:00,68.8,30.5,29.95,NW,312,5.5,8.1,24,0.00,CLR,,0.00,WeatherDisplay:10.37,2013-05-16 10:32:00,
2013-05-16 06:34:00,69.0,29.6,29.95,NW,316,5.7,9.0,23,0.00,CLR,,0.00,WeatherDisplay:10.37,2013-05-16 10:34:00,
2013-05-16 06:35:00,69.1,30.8,29.95,NW,312,5.1,8.1,24,0.00,CLR,,0.00,WeatherDisplay:10.37,2013-05-16 10:35:00,
2013-05-16 06:36:00,68.9,29.5,29.95,WNW,288,3.3,9.2,23,0.00,CLR,,0.00,WeatherDisplay:10.37,2013-05-16 10:36:00,
2013-05-16 06:37:00,68.9,28.5,29.95,WNW,284,7.2,9.5,22,0.00,CLR,,0.00,WeatherDisplay:10.37,2013-05-16 10:37:00,
2013-05-16 06:39:00,69.3,28.8,29.95,WNW,294,0.7,6.0,22,0.00,CLR,,0.00,WeatherDisplay:10.37,2013-05-16 10:39:00,
2013-05-16 06:40:00,69.3,29.9,29.95,WNW,298,1.9,4.3,23,0.00,CLR,,0.00,WeatherDisplay:10.37,2013-05-16 10:40:00,
2013-05-16 06:41:00,69.4,28.9,29.95,WNW,298,0.0,5.8,22,0.00,CLR,,0.00,WeatherDisplay:10.37,2013-05-16 10:41:00,
2013-05-16 06:42:00,69.1,28.6,29.95,North,354,2.9,6.9,22,0.00,CLR,,0.00,WeatherDisplay:10.37,2013-05-16 10:42:00,
2013-05-16 06:45:00,69.4,30.0,29.95,WNW,295,4.9,9.2,23,0.00,CLR,,0.00,WeatherDisplay:10.37,2013-05-16 10:45:00,
2013-05-16 06:46:00,68.6,29.3,29.95,NW,316,4.5,8.1,23,0.00,CLR,,0.00,WeatherDisplay:10.37,2013-05-16 10:46:00,
2013-05-16 06:47:00,69.0,29.6,29.95,West,281,1.9,8.1,23,0.00,CLR,,0.00,WeatherDisplay:10.37,2013-05-16 10:47:00,
2013-05-16 06:50:00,69.1,29.7,29.95,NW,326,6.8,6.9,23,0.00,CLR,,0.00,WeatherDisplay:10.37,2013-05-16 10:50:00,
2013-05-16 06:52:00,69.4,28.9,29.95,WNW,296,6.9,9.2,22,0.00,CLR,,0.00,WeatherDisplay:10.37,2013-05-16 10:52:00,
2013-05-16 06:55:00,69.0,28.5,29.95,NW,306,3.7,8.1,22,0.00,CLR,,0.00,WeatherDisplay:10.37,2013-05-16 10:55:00,
2013-05-16 06:56:00,69.1,28.6,29.95,West,275,3.7,8.1,22,0.00,CLR,,0.00,WeatherDisplay:10.37,2013-05-16 10:56:00,
2013-05-16 06:57:00,69.5,27.8,29.95,NW,309,7.0,9.2,21,0.00,CLR,,0.00,WeatherDisplay:10.37,2013-05-16 10:57:00,
2013-05-16 07:00:00,69.6,27.9,29.95,NW,322,6.0,8.1,21,0.00,CLR,,0.00,WeatherDisplay:10.37,2013-05-16 11:00:00,
2013-05-16 07:01:00,69.4,28.9,29.95,WSW,239,4.3,8.1,22,0.00,CLR,,0.00,WeatherDisplay:10.37,2013-05-16 11:01:00,
2013-05-16 07:02:00,69.7,28.0,29.95,NW,318,3.2,8.1,21,0.00,CLR,,0.00,WeatherDisplay:10.37,2013-05-16 11:02:00,
2013-05-16 07:03:00,69.8,28.1,29.95,West,281,4.1,8.1,21,0.00,CLR,,0.00,WeatherDisplay:10.37,2013-05-16 11:03:00,
2013-05-16 07:05:00,69.7,25.6,29.96,WNW,299,6.0,10.4,19,0.00,CLR,,0.00,WeatherDisplay:10.37,2013-05-16 11:05:00,
2013-05-16 07:06:00,70.2,27.2,29.96,WNW,288,3.9,9.2,20,0.00,CLR,,0.00,WeatherDisplay:10.37,2013-05-16 11:06:00,
2013-05-16 07:07:00,69.8,25.6,29.96,WNW,298,4.4,9.2,19,0.00,CLR,,0.00,WeatherDisplay:10.37,2013-05-16 11:07:00,
2013-05-16 07:08:00,70.1,27.1,29.96,NW,316,6.3,9.2,20,0.00,CLR,,0.00,WeatherDisplay:10.37,2013-05-16 11:08:00,
2013-05-16 07:11:00,70.4,26.1,29.96,NNW,346,4.2,6.9,19,0.00,CLR,,0.00,WeatherDisplay:10.37,2013-05-16 11:11:00,
2013-05-16 07:12:00,70.5,24.9,29.96,WNW,289,4.4,11.2,18,0.00,CLR,,0.00,WeatherDisplay:10.37,2013-05-16 11:12:00,
2013-05-16 07:13:00,70.8,26.5,29.96,NNW,330,2.1,11.5,19,0.00,CLR,,0.00,WeatherDisplay:10.37,2013-05-16 11:13:00,
2013-05-16 07:16:00,70.9,25.2,29.96,NNW,330,4.0,10.4,18,0.00,CLR,,0.00,WeatherDisplay:10.37,2013-05-16 11:16:00,
2013-05-16 07:17:00,70.9,25.2,29.96,SW,236,5.9,8.1,18,0.00,CLR,,0.00,WeatherDisplay:10.37,2013-05-16 11:17:00,
2013-05-16 07:18:00,70.7,25.1,29.96,WNW,289,4.7,11.5,18,0.00,CLR,,0.00,WeatherDisplay:10.37,2013-05-16 11:18:00,
2013-05-16 07:21:00,71.0,25.3,29.96,WNW,301,7.5,11.5,18,0.00,CLR,,0.00,WeatherDisplay:10.37,2013-05-16 11:21:00,
2013-05-16 07:22:00,71.1,25.4,29.96,WNW,291,5.2,9.2,18,0.00,CLR,,0.00,WeatherDisplay:10.37,2013-05-16 11:22:00,
2013-05-16 07:23:00,71.3,24.2,29.96,NNW,333,6.2,9.2,17,0.00,CLR,,0.00,WeatherDisplay:10.37,2013-05-16 11:23:00,
2013-05-16 07:26:00,71.6,24.4,29.96,WNW,282,3.1,12.7,17,0.00,CLR,,0.00,WeatherDisplay:10.37,2013-05-16 11:26:00,
2013-05-16 07:27:00,71.4,24.3,29.96,WNW,282,0.8,6.9,17,0.00,CLR,,0.00,WeatherDisplay:10.37,2013-05-16 11:27:00,
2013-05-16 07:28:00,71.4,24.3,29.96,West,280,7.6,11.5,17,0.00,CLR,,0.00,WeatherDisplay:10.37,2013-05-16 11:28:00,
2013-05-16 07:29:00,71.7,24.5,29.96,WNW,282,6.1,10.4,17,0.00,CLR,,0.00,WeatherDisplay:10.37,2013-05-16 11:29:00,
2013-05-16 07:31:00,71.7,23.1,29.96,NW,315,6.5,13.8,16,0.00,CLR,,0.00,WeatherDisplay:10.37,2013-05-16 11:31:00,
2013-05-16 07:32:00,71.7,24.5,29.96,West,277,7.4,11.5,17,0.00,CLR,,0.00,WeatherDisplay:10.37,2013-05-16 11:32:00,
2013-05-16 07:33:00,71.6,23.0,29.96,NNW,333,7.1,11.5,16,0.00,CLR,,0.00,WeatherDisplay:10.37,2013-05-16 11:33:00,
2013-05-16 07:34:00,71.6,23.0,29.97,NW,304,6.1,9.2,16,0.00,CLR,,0.00,WeatherDisplay:10.37,2013-05-16 11:34:00,
2013-05-16 07:37:00,71.9,24.7,29.97,NW,308,7.1,10.4,17,0.00,CLR,,0.00,WeatherDisplay:10.37,2013-05-16 11:37:00,
2013-05-16 07:38:00,71.8,23.2,29.97,NW,312,6.7,11.5,16,0.00,CLR,,0.00,WeatherDisplay:10.37,2013-05-16 11:38:00,
2013-05-16 07:39:00,71.8,24.6,29.97,WNW,292,6.7,10.4,17,0.00,CLR,,0.00,WeatherDisplay:10.37,2013-05-16 11:39:00,
2013-05-16 07:42:00,72.1,23.4,29.97,WNW,291,7.3,10.4,16,0.00,CLR,,0.00,WeatherDisplay:10.37,2013-05-16 11:42:00,
2013-05-16 07:43:00,72.5,23.7,29.97,NNW,333,6.5,9.2,16,0.00,CLR,,0.00,WeatherDisplay:10.37,2013-05-16 11:43:00,
2013-05-16 07:44:00,72.1,23.4,29.97,North,350,5.2,8.1,16,0.00,CLR,,0.00,WeatherDisplay:10.37,2013-05-16 11:44:00,
2013-05-16 07:47:00,72.8,24.0,29.97,West,267,7.3,9.2,16,0.00,CLR,,0.00,WeatherDisplay:10.37,2013-05-16 11:47:00,
2013-05-16 07:48:00,72.4,25.1,29.97,WNW,285,6.9,10.4,17,0.00,CLR,,0.00,WeatherDisplay:10.37,2013-05-16 11:48:00,
2013-05-16 07:49:00,72.3,23.6,29.97,NW,309,5.8,9.2,16,0.00,CLR,,0.00,WeatherDisplay:10.37,2013-05-16 11:49:00,
2013-05-16 07:53:00,72.5,23.7,29.97,WNW,289,4.8,9.2,16,0.00,CLR,,0.00,WeatherDisplay:10.37,2013-05-16 11:53:00,
2013-05-16 07:54:00,72.9,24.0,29.97,WNW,287,6.0,8.1,16,0.00,CLR,,0.00,WeatherDisplay:10.37,2013-05-16 11:54:00,
2013-05-16 07:55:00,72.2,23.5,29.97,NW,313,7.3,10.4,16,0.00,CLR,,0.00,WeatherDisplay:10.37,2013-05-16 11:55:00,
2013-05-16 07:58:00,72.5,22.2,29.97,NW,309,7.6,12.8,15,0.00,CLR,,0.00,WeatherDisplay:10.37,2013-05-16 11:58:00,
2013-05-16 07:59:00,73.0,24.1,29.97,West,264,7.0,13.8,16,0.00,CLR,,0.00,WeatherDisplay:10.37,2013-05-16 11:59:00,
2013-05-16 08:00:00,72.7,23.9,29.97,West,280,7.1,11.7,16,0.00,CLR,,0.00,WeatherDisplay:10.37,2013-05-16 12:00:00,
2013-05-16 08:03:00,73.0,22.6,29.97,NW,313,5.9,12.7,15,0.00,CLR,,0.00,WeatherDisplay:10.37,2013-05-16 12:03:00,
2013-05-16 08:04:00,72.9,24.0,29.97,WNW,288,8.5,11.5,16,0.00,CLR,,0.00,WeatherDisplay:10.37,2013-05-16 12:04:00,
2013-05-16 08:05:00,73.2,21.1,29.97,WNW,288,10.7,15.0,14,0.00,CLR,,0.00,WeatherDisplay:10.37,2013-05-16 12:05:00,
2013-05-16 08:08:00,73.3,22.8,29.98,WNW,287,9.1,12.7,15,0.00,CLR,,0.00,WeatherDisplay:10.37,2013-05-16 12:08:00,
2013-05-16 08:09:00,73.4,21.3,29.98,NW,308,8.5,12.7,14,0.00,CLR,,0.00,WeatherDisplay:10.37,2013-05-16 12:09:00,
2013-05-16 08:10:00,73.0,22.6,29.98,NW,311,9.4,15.0,15,0.00,CLR,,0.00,WeatherDisplay:10.37,2013-05-16 12:10:00,
2013-05-16 08:14:00,73.3,21.2,29.98,WNW,301,10.4,13.8,14,0.00,CLR,,0.00,WeatherDisplay:10.37,2013-05-16 12:14:00,
2013-05-16 08:15:00,73.1,22.7,29.98,NNW,337,7.4,10.4,15,0.00,CLR,,0.00,WeatherDisplay:10.37,2013-05-16 12:15:00,
2013-05-16 08:19:00,73.7,21.5,29.98,NW,315,8.8,12.7,14,0.00,CLR,,0.00,WeatherDisplay:10.37,2013-05-16 12:19:00,
2013-05-16 08:20:00,73.8,24.8,29.98,NW,305,6.7,13.8,16,0.00,CLR,,0.00,WeatherDisplay:10.37,2013-05-16 12:20:00,
2013-05-16 08:24:00,74.1,21.8,29.98,NW,325,8.4,11.5,14,0.00,CLR,,0.00,WeatherDisplay:10.37,2013-05-16 12:24:00,
2013-05-16 08:25:00,73.8,23.2,29.98,NNW,333,11.4,16.1,15,0.00,CLR,,0.00,WeatherDisplay:10.37,2013-05-16 12:25:00,
2013-05-16 08:29:00,74.2,21.9,29.98,WNW,289,5.9,12.7,14,0.00,CLR,,0.00,WeatherDisplay:10.37,2013-05-16 12:29:00,
2013-05-16 08:30:00,74.5,22.1,29.98,WNW,298,6.6,9.2,14,0.00,CLR,,0.00,WeatherDisplay:10.37,2013-05-16 12:30:00,
2013-05-16 08:34:00,74.5,22.1,29.98,NW,305,4.3,9.2,14,0.00,CLR,,0.00,WeatherDisplay:10.37,2013-05-16 12:34:00,
2013-05-16 08:35:00,74.6,20.5,29.98,NW,313,6.5,9.2,13,0.00,CLR,,0.00,WeatherDisplay:10.37,2013-05-16 12:35:00,
2013-05-16 08:39:00,74.6,22.2,29.98,NW,308,5.4,10.4,14,0.00,CLR,,0.00,WeatherDisplay:10.37,2013-05-16 12:39:00,
2013-05-16 08:40:00,74.6,20.5,29.98,NW,323,5.6,8.7,13,0.00,CLR,,0.00,WeatherDisplay:10.37,2013-05-16 12:40:00,
2013-05-16 08:41:00,74.6,16.6,29.98,SW,220,9.2,12.7,11,0.00,CLR,,0.00,WeatherDisplay:10.37,2013-05-16 12:41:00,
2013-05-16 08:44:00,74.6,20.5,29.98,NW,326,6.7,11.5,13,0.00,CLR,,0.00,WeatherDisplay:10.37,2013-05-16 12:44:00,
2013-05-16 08:45:00,74.6,20.5,29.98,NW,319,6.9,12.7,13,0.00,CLR,,0.00,WeatherDisplay:10.37,2013-05-16 12:45:00,
2013-05-16 08:47:00,74.6,18.6,29.98,West,278,7.8,15.0,12,0.00,CLR,,0.00,WeatherDisplay:10.37,2013-05-16 12:47:00,
2013-05-16 08:49:00,74.5,22.1,29.98,NW,319,8.8,18.4,14,0.00,CLR,,0.00,WeatherDisplay:10.37,2013-05-16 12:49:00,
2013-05-16 08:50:00,74.5,22.1,29.98,NW,306,9.0,12.7,14,0.00,CLR,,0.00,WeatherDisplay:10.37,2013-05-16 12:50:00,
2013-05-16 08:51:00,74.3,20.2,29.98,WNW,285,8.1,11.5,13,0.00,CLR,,0.00,WeatherDisplay:10.37,2013-05-16 12:51:00,
2013-05-16 08:52:00,74.4,22.1,29.98,WNW,291,7.1,9.2,14,0.00,CLR,,0.00,WeatherDisplay:10.37,2013-05-16 12:52:00,
2013-05-16 08:55:00,74.6,20.5,29.98,NW,316,6.8,12.8,13,0.00,CLR,,0.00,WeatherDisplay:10.37,2013-05-16 12:55:00,
2013-05-16 08:56:00,74.6,20.5,29.98,WNW,298,8.7,12.7,13,0.00,CLR,,0.00,WeatherDisplay:10.37,2013-05-16 12:56:00,
2013-05-16 08:57:00,74.6,20.5,29.98,NW,306,6.8,10.4,13,0.00,CLR,,0.00,WeatherDisplay:10.37,2013-05-16 12:57:00,
2013-05-16 09:00:00,74.6,22.2,29.98,West,278,7.3,10.4,14,0.00,CLR,,0.00,WeatherDisplay:10.37,2013-05-16 13:00:00,
2013-05-16 09:01:00,74.6,20.5,29.98,WNW,287,8.8,12.7,13,0.00,CLR,,0.00,WeatherDisplay:10.37,2013-05-16 13:01:00,
2013-05-16 09:02:00,74.6,18.6,29.98,WNW,301,9.1,13.8,12,0.00,CLR,,0.00,WeatherDisplay:10.37,2013-05-16 13:02:00,
2013-05-16 09:05:00,74.6,18.6,29.98,West,275,7.0,11.5,12,0.00,CLR,,0.00,WeatherDisplay:10.37,2013-05-16 13:05:00,
2013-05-16 09:06:00,74.6,16.6,29.98,NW,322,12.5,19.6,11,0.00,CLR,,0.00,WeatherDisplay:10.37,2013-05-16 13:06:00,
2013-05-16 09:08:00,74.6,18.6,29.98,WSW,258,9.5,15.0,12,0.00,CLR,,0.00,WeatherDisplay:10.37,2013-05-16 13:08:00,
2013-05-16 09:10:00,74.6,18.6,29.98,WNW,296,7.9,16.1,12,0.00,CLR,,0.00,WeatherDisplay:10.37,2013-05-16 13:10:00,
2013-05-16 09:11:00,75.0,18.9,29.98,NW,322,8.7,12.7,12,0.00,CLR,,0.00,WeatherDisplay:10.37,2013-05-16 13:11:00,
2013-05-16 09:13:00,74.6,18.6,29.98,NW,304,7.2,11.5,12,0.00,CLR,,0.00,WeatherDisplay:10.37,2013-05-16 13:13:00,
2013-05-16 09:15:00,74.7,18.7,29.98,WNW,287,8.9,11.5,12,0.00,CLR,,0.00,WeatherDisplay:10.37,2013-05-16 13:15:00,
2013-05-16 09:16:00,74.8,20.6,29.98,NW,309,8.2,15.9,13,0.00,CLR,,0.00,WeatherDisplay:10.37,2013-05-16 13:16:00,
2013-05-16 09:18:00,74.8,16.7,29.97,NW,309,10.9,20.7,11,0.00,CLR,,0.00,WeatherDisplay:10.37,2013-05-16 13:18:00,
2013-05-16 09:20:00,75.0,16.9,29.98,West,271,8.3,16.1,11,0.00,CLR,,0.00,WeatherDisplay:10.37,2013-05-16 13:20:00,
2013-05-16 09:21:00,75.1,17.0,29.98,WSW,253,7.0,10.4,11,0.00,CLR,,0.00,WeatherDisplay:10.37,2013-05-16 13:21:00,
2013-05-16 09:22:00,75.0,18.9,29.98,NW,315,5.4,13.1,12,0.00,CLR,,0.00,WeatherDisplay:10.37,2013-05-16 13:22:00,
2013-05-16 09:24:00,75.8,19.5,29.98,NW,316,7.0,12.7,12,0.00,CLR,,0.00,WeatherDisplay:10.37,2013-05-16 13:24:00,
2013-05-16 09:25:00,75.5,19.3,29.98,WSW,257,7.7,13.8,12,0.00,CLR,,0.00,WeatherDisplay:10.37,2013-05-16 13:25:00,
2013-05-16 09:26:00,75.6,17.3,29.98,West,278,9.2,13.8,11,0.00,CLR,,0.00,WeatherDisplay:10.37,2013-05-16 13:26:00,
2013-05-16 09:27:00,75.9,19.6,29.98,NNW,329,8.4,13.8,12,0.00,CLR,,0.00,WeatherDisplay:10.37,2013-05-16 13:27:00,
2013-05-16 09:29:00,76.0,17.6,29.98,NNW,336,7.7,12.2,11,0.00,CLR,,0.00,WeatherDisplay:10.37,2013-05-16 13:29:00,
2013-05-16 09:30:00,75.8,17.5,29.97,NW,316,4.8,16.1,11,0.00,CLR,,0.00,WeatherDisplay:10.37,2013-05-16 13:30:00,
2013-05-16 09:31:00,76.2,15.6,29.98,NW,309,2.6,13.8,10,0.00,CLR,,0.00,WeatherDisplay:10.37,2013-05-16 13:31:00,
2013-05-16 09:32:00,76.1,17.7,29.98,WNW,291,5.4,11.5,11,0.00,CLR,,0.00,WeatherDisplay:10.37,2013-05-16 13:32:00,
2013-05-16 09:34:00,76.1,15.5,29.98,NW,305,7.6,13.2,10,0.00,CLR,,0.00,WeatherDisplay:10.37,2013-05-16 13:34:00,
2013-05-16 09:36:00,75.9,17.6,29.97,NNW,332,11.4,17.3,11,0.00,CLR,,0.00,WeatherDisplay:10.37,2013-05-16 13:36:00,
2013-05-16 09:37:00,76.1,15.5,29.97,WNW,291,9.4,15.0,10,0.00,CLR,,0.00,WeatherDisplay:10.37,2013-05-16 13:37:00,
2013-05-16 09:39:00,76.2,13.2,29.97,WNW,301,8.4,15.0,9,0.00,CLR,,0.00,WeatherDisplay:10.37,2013-05-16 13:39:00,
2013-05-16 09:41:00,76.5,15.8,29.97,WNW,287,11.2,17.3,10,0.00,CLR,,0.00,WeatherDisplay:10.37,2013-05-16 13:41:00,
2013-05-16 09:42:00,76.3,15.7,29.97,North,8,11.8,17.3,10,0.00,CLR,,0.00,WeatherDisplay:10.37,2013-05-16 13:42:00,
2013-05-16 09:44:00,76.0,15.4,29.97,NW,315,13.5,16.8,10,0.00,CLR,,0.00,WeatherDisplay:10.37,2013-05-16 13:44:00,
2013-05-16 09:45:00,76.1,15.5,29.97,WNW,292,13.8,25.3,10,0.00,CLR,,0.00,WeatherDisplay:10.37,2013-05-16 13:45:00,
2013-05-16 09:46:00,76.2,15.6,29.97,WNW,284,7.7,15.0,10,0.00,CLR,,0.00,WeatherDisplay:10.37,2013-05-16 13:46:00,
2013-05-16 09:48:00,75.5,15.1,29.97,NW,316,11.5,24.2,10,0.00,CLR,,0.00,WeatherDisplay:10.37,2013-05-16 13:48:00,
2013-05-16 09:49:00,76.0,13.0,29.97,NW,325,10.3,19.6,9,0.00,CLR,,0.00,WeatherDisplay:10.37,2013-05-16 13:49:00,
2013-05-16 09:50:00,76.0,13.0,29.97,NNW,329,10.5,19.6,9,0.00,CLR,,0.00,WeatherDisplay:10.37,2013-05-16 13:50:00,
2013-05-16 09:51:00,75.9,15.4,29.98,NW,319,14.5,17.3,10,0.00,CLR,,0.00,WeatherDisplay:10.37,2013-05-16 13:51:00,
2013-05-16 09:53:00,75.6,12.7,29.97,NW,319,11.0,24.2,9,0.00,CLR,,0.00,WeatherDisplay:10.37,2013-05-16 13:53:00,
2013-05-16 09:54:00,75.7,15.2,29.97,North,356,9.4,20.7,10,0.00,CLR,,0.00,WeatherDisplay:10.37,2013-05-16 13:54:00,
2013-05-16 09:55:00,75.9,15.4,29.97,WNW,282,8.8,15.0,10,0.00,CLR,,0.00,WeatherDisplay:10.37,2013-05-16 13:55:00,
2013-05-16 09:57:00,76.0,17.6,29.97,NNW,333,9.8,15.0,11,0.00,CLR,,0.00,WeatherDisplay:10.37,2013-05-16 13:57:00,
2013-05-16 09:58:00,75.5,15.1,29.97,NNE,31,10.2,17.3,10,0.00,CLR,,0.00,WeatherDisplay:10.37,2013-05-16 13:58:00,
2013-05-16 10:00:00,75.3,14.9,29.97,WNW,294,14.8,23.0,10,0.00,CLR,,0.00,WeatherDisplay:10.37,2013-05-16 14:00:00,
2013-05-16 10:01:00,75.8,15.3,29.97,SW,236,11.0,16.1,10,0.00,CLR,,0.00,WeatherDisplay:10.37,2013-05-16 14:01:00,
2013-05-16 10:02:00,75.8,17.5,29.97,WNW,289,10.9,16.1,11,0.00,CLR,,0.00,WeatherDisplay:10.37,2013-05-16 14:02:00,
2013-05-16 10:03:00,75.9,15.4,29.97,WNW,302,10.6,19.6,10,0.00,CLR,,0.00,WeatherDisplay:10.37,2013-05-16 14:03:00,
2013-05-16 10:05:00,75.4,15.0,29.97,NNW,328,8.6,17.3,10,0.00,CLR,,0.00,WeatherDisplay:10.37,2013-05-16 14:05:00,
2013-05-16 10:06:00,76.0,17.6,29.97,NW,319,8.6,11.5,11,0.00,CLR,,0.00,WeatherDisplay:10.37,2013-05-16 14:06:00,
2013-05-16 10:07:00,75.8,15.3,29.97,West,260,9.3,13.8,10,0.00,CLR,,0.00,WeatherDisplay:10.37,2013-05-16 14:07:00,
2013-05-16 10:09:00,76.0,19.7,29.97,WNW,287,6.6,15.1,12,0.00,CLR,,0.00,WeatherDisplay:10.37,2013-05-16 14:09:00,
2013-05-16 10:10:00,75.9,17.6,29.97,NW,319,12.5,15.0,11,0.00,CLR,,0.00,WeatherDisplay:10.37,2013-05-16 14:10:00,
2013-05-16 10:11:00,76.1,19.8,29.97,WNW,299,11.3,16.1,12,0.00,CLR,,0.00,WeatherDisplay:10.37,2013-05-16 14:11:00,
2013-05-16 10:12:00,76.3,15.7,29.97,WSW,253,7.9,11.5,10,0.00,CLR,,0.00,WeatherDisplay:10.37,2013-05-16 14:12:00,
2013-05-16 10:14:00,76.4,15.7,29.97,West,263,11.0,17.3,10,0.00,CLR,,0.00,WeatherDisplay:10.37,2013-05-16 14:14:00,
2013-05-16 10:16:00,76.4,13.3,29.97,West,267,12.3,21.9,9,0.00,CLR,,0.00,WeatherDisplay:10.37,2013-05-16 14:16:00,
2013-05-16 10:17:00,75.9,13.0,29.97,WNW,285,15.1,20.7,9,0.00,CLR,,0.00,WeatherDisplay:10.37,2013-05-16 14:17:00,
2013-05-16 10:19:00,75.6,15.1,29.97,NW,323,12.3,17.3,10,0.00,CLR,,0.00,WeatherDisplay:10.37,2013-05-16 14:19:00,
2013-05-16 10:21:00,75.7,17.4,29.98,NNW,342,11.2,17.3,11,0.00,CLR,,0.00,WeatherDisplay:10.37,2013-05-16 14:21:00,
2013-05-16 10:22:00,75.9,15.4,29.98,WNW,284,9.5,12.7,10,0.00,CLR,,0.00,WeatherDisplay:10.37,2013-05-16 14:22:00,
2013-05-16 10:24:00,76.1,15.5,29.98,NNW,330,13.3,19.6,10,0.00,CLR,,0.00,WeatherDisplay:10.37,2013-05-16 14:24:00,
2013-05-16 10:26:00,76.2,15.6,29.98,WSW,251,9.5,14.7,10,0.00,CLR,,0.00,WeatherDisplay:10.37,2013-05-16 14:26:00,
2013-05-16 10:27:00,76.3,17.9,29.98,NW,319,13.0,18.4,11,0.00,CLR,,0.00,WeatherDisplay:10.37,2013-05-16 14:27:00,
2013-05-16 10:29:00,76.1,19.8,29.98,NW,320,10.4,17.3,12,0.00,CLR,,0.00,WeatherDisplay:10.37,2013-05-16 14:29:00,
2013-05-16 10:31:00,76.2,15.6,29.98,NW,318,11.2,15.0,10,0.00,CLR,,0.00,WeatherDisplay:10.37,2013-05-16 14:31:00,
2013-05-16 10:32:00,76.3,17.9,29.98,NW,319,9.7,19.6,11,0.00,CLR,,0.00,WeatherDisplay:10.37,2013-05-16 14:32:00,
2013-05-16 10:35:00,75.7,17.4,29.98,NNW,330,10.3,17.3,11,0.00,CLR,,0.00,WeatherDisplay:10.37,2013-05-16 14:35:00,
2013-05-16 10:36:00,75.6,15.1,29.98,West,274,12.4,18.4,10,0.00,CLR,,0.00,WeatherDisplay:10.37,2013-05-16 14:36:00,
2013-05-16 10:37:00,75.4,17.2,29.98,WSW,256,11.9,18.4,11,0.00,CLR,,0.00,WeatherDisplay:10.37,2013-05-16 14:37:00,
2013-05-16 10:40:00,75.8,17.5,29.98,NW,308,13.4,20.7,11,0.00,CLR,,0.00,WeatherDisplay:10.37,2013-05-16 14:40:00,
2013-05-16 10:41:00,75.8,17.5,29.98,NW,311,10.5,16.1,11,0.00,CLR,,0.00,WeatherDisplay:10.37,2013-05-16 14:41:00,
2013-05-16 10:42:00,75.6,15.1,29.98,NW,308,9.2,17.5,10,0.00,CLR,,0.00,WeatherDisplay:10.37,2013-05-16 14:42:00,
2013-05-16 10:43:00,75.6,17.3,29.98,WNW,287,12.4,18.4,11,0.00,CLR,,0.00,WeatherDisplay:10.37,2013-05-16 14:43:00,
2013-05-16 10:46:00,74.9,18.8,29.99,NNW,344,14.9,19.6,12,0.00,CLR,,0.00,WeatherDisplay:10.37,2013-05-16 14:46:00,
2013-05-16 10:47:00,75.1,19.0,29.98,WNW,301,11.5,18.4,12,0.00,CLR,,0.00,WeatherDisplay:10.37,2013-05-16 14:47:00,
2013-05-16 10:48:00,75.3,19.1,29.98,NW,312,8.7,16.1,12,0.00,CLR,,0.00,WeatherDisplay:10.37,2013-05-16 14:48:00,
2013-05-16 10:51:00,75.2,17.0,29.99,NNW,330,13.2,18.4,11,0.00,CLR,,0.00,WeatherDisplay:10.37,2013-05-16 14:51:00,
2013-05-16 10:52:00,75.2,19.1,29.99,NW,318,12.0,16.1,12,0.00,CLR,,0.00,WeatherDisplay:10.37,2013-05-16 14:52:00,
2013-05-16 10:53:00,75.2,19.1,29.98,NNW,337,9.5,16.1,12,0.00,CLR,,0.00,WeatherDisplay:10.37,2013-05-16 14:53:00,
2013-05-16 10:56:00,76.1,19.8,29.99,WNW,296,6.0,12.7,12,0.00,CLR,,0.00,WeatherDisplay:10.37,2013-05-16 14:56:00,
2013-05-16 10:57:00,76.4,18.0,29.98,NW,316,4.4,8.9,11,0.00,CLR,,0.00,WeatherDisplay:10.37,2013-05-16 14:57:00,
2013-05-16 10:58:00,76.2,19.8,29.98,West,277,10.3,13.8,12,0.00,CLR,,0.00,WeatherDisplay:10.37,2013-05-16 14:58:00,
2013-05-16 11:01:00,76.4,20.0,29.98,WNW,302,4.0,13.8,12,0.00,CLR,,0.00,WeatherDisplay:10.37,2013-05-16 15:01:00,
2013-05-16 11:02:00,76.3,15.7,29.99,NW,305,11.4,15.0,10,0.00,CLR,,0.00,WeatherDisplay:10.37,2013-05-16 15:02:00,
2013-05-16 11:04:00,76.4,15.7,29.99,NW,318,7.4,11.4,10,0.00,CLR,,0.00,WeatherDisplay:10.37,2013-05-16 15:04:00,
2013-05-16 11:06:00,76.4,15.7,29.99,West,281,7.6,13.8,10,0.00,CLR,,0.00,WeatherDisplay:10.37,2013-05-16 15:06:00,
2013-05-16 11:07:00,76.5,18.0,29.99,NNW,346,9.5,13.8,11,0.00,CLR,,0.00,WeatherDisplay:10.37,2013-05-16 15:07:00,
2013-05-16 11:08:00,76.2,15.6,29.99,NNW,337,8.5,10.4,10,0.00,CLR,,0.00,WeatherDisplay:10.37,2013-05-16 15:08:00,
2013-05-16 11:09:00,76.3,19.9,29.99,NW,313,8.5,13.8,12,0.00,CLR,,0.00,WeatherDisplay:10.37,2013-05-16 15:09:00,
2013-05-16 11:11:00,76.0,17.6,29.99,WNW,288,7.3,10.9,11,0.00,CLR,,0.00,WeatherDisplay:10.37,2013-05-16 15:11:00,
2013-05-16 11:12:00,76.1,21.6,29.99,NW,311,6.9,11.5,13,0.00,CLR,,0.00,WeatherDisplay:10.37,2013-05-16 15:12:00,
2013-05-16 11:13:00,76.4,18.0,29.99,West,272,7.6,10.4,11,0.00,CLR,,0.00,WeatherDisplay:10.37,2013-05-16 15:13:00,
2013-05-16 11:14:00,76.1,19.8,29.99,NW,323,7.3,10.4,12,0.00,CLR,,0.00,WeatherDisplay:10.37,2013-05-16 15:14:00,
2013-05-16 11:17:00,76.8,16.1,29.99,NNW,330,7.6,10.4,10,0.00,CLR,,0.00,WeatherDisplay:10.37,2013-05-16 15:17:00,
2013-05-16 11:18:00,76.5,18.0,29.99,West,261,6.3,12.7,11,0.00,CLR,,0.00,WeatherDisplay:10.37,2013-05-16 15:18:00,
2013-05-16 11:19:00,76.6,18.1,29.99,NNW,347,7.6,11.6,11,0.00,CLR,,0.00,WeatherDisplay:10.37,2013-05-16 15:19:00,
2013-05-16 11:22:00,76.5,15.8,29.99,NNW,346,8.9,13.8,10,0.00,CLR,,0.00,WeatherDisplay:10.37,2013-05-16 15:22:00,
2013-05-16 11:23:00,76.6,10.8,29.99,NW,305,6.3,10.4,8,0.00,CLR,,0.00,WeatherDisplay:10.37,2013-05-16 15:23:00,
2013-05-16 11:24:00,76.2,15.6,29.99,NNW,346,8.5,12.2,10,0.00,CLR,,0.00,WeatherDisplay:10.37,2013-05-16 15:24:00,
2013-05-16 11:27:00,76.6,18.1,29.99,NNW,332,4.1,12.7,11,0.00,CLR,,0.00,WeatherDisplay:10.37,2013-05-16 15:27:00,
2013-05-16 11:28:00,76.7,18.2,29.99,NNW,332,3.7,8.1,11,0.00,CLR,,0.00,WeatherDisplay:10.37,2013-05-16 15:28:00,
2013-05-16 11:29:00,76.6,15.9,29.99,WNW,301,8.6,12.7,10,0.00,CLR,,0.00,WeatherDisplay:10.37,2013-05-16 15:29:00,
2013-05-16 11:32:00,76.9,16.1,29.99,NW,316,6.8,11.5,10,0.00,CLR,,0.00,WeatherDisplay:10.37,2013-05-16 15:32:00,
2013-05-16 11:33:00,76.8,13.6,29.99,North,360,7.5,11.5,9,0.00,CLR,,0.00,WeatherDisplay:10.37,2013-05-16 15:33:00,
2013-05-16 11:34:00,76.4,15.7,29.99,WNW,292,9.3,13.8,10,0.00,CLR,,0.00,WeatherDisplay:10.37,2013-05-16 15:34:00,
2013-05-16 11:35:00,76.7,13.6,29.99,NW,306,8.4,12.7,9,0.00,CLR,,0.00,WeatherDisplay:10.37,2013-05-16 15:35:00,
2013-05-16 11:38:00,76.9,11.0,29.99,WSW,250,0.0,0.0,8,0.00,CLR,,0.00,WeatherDisplay:10.37,2013-05-16 15:38:00,
2013-05-16 11:39:00,76.9,13.7,29.99,West,281,1.6,4.6,9,0.00,CLR,,0.00,WeatherDisplay:10.37,2013-05-16 15:39:00,
2013-05-16 11:40:00,77.3,11.3,29.99,SW,236,2.4,5.8,8,0.00,CLR,,0.00,WeatherDisplay:10.37,2013-05-16 15:40:00,
2013-05-16 11:43:00,77.4,11.4,29.99,WNW,282,5.4,10.8,8,0.00,CLR,,0.00,WeatherDisplay:10.37,2013-05-16 15:43:00,
2013-05-16 11:44:00,77.3,11.3,29.99,West,275,7.9,12.7,8,0.00,CLR,,0.00,WeatherDisplay:10.37,2013-05-16 15:44:00,
2013-05-16 11:45:00,77.0,8.1,29.99,NW,320,7.7,11.5,7,0.00,CLR,,0.00,WeatherDisplay:10.37,2013-05-16 15:45:00,
2013-05-16 11:48:00,78.3,9.1,29.99,West,275,4.6,9.9,7,0.00,CLR,,0.00,WeatherDisplay:10.37,2013-05-16 15:48:00,
2013-05-16 11:49:00,77.3,11.3,29.99,WNW,285,2.5,10.4,8,0.00,CLR,,0.00,WeatherDisplay:10.37,2013-05-16 15:49:00,
2013-05-16 11:50:00,78.1,11.9,29.99,SW,227,2.4,7.1,8,0.00,CLR,,0.00,WeatherDisplay:10.37,2013-05-16 15:50:00,
2013-05-16 11:53:00,78.9,9.5,29.99,West,271,6.5,10.4,7,0.00,CLR,,0.00,WeatherDisplay:10.37,2013-05-16 15:53:00,
2013-05-16 11:55:00,77.5,11.5,29.99,SSW,210,0.5,3.5,8,0.00,CLR,,0.00,WeatherDisplay:10.37,2013-05-16 15:55:00,
2013-05-16 11:58:00,77.7,8.6,29.99,NW,308,8.1,11.5,7,0.00,CLR,,0.00,WeatherDisplay:10.37,2013-05-16 15:58:00,
2013-05-16 11:59:00,77.7,11.6,29.99,NNW,340,4.2,9.2,8,0.00,CLR,,0.00,WeatherDisplay:10.37,2013-05-16 15:59:00,
2013-05-16 12:00:00,77.7,11.6,29.98,West,263,4.0,9.2,8,0.00,CLR,,0.00,WeatherDisplay:10.37,2013-05-16 16:00:00,
2013-05-16 12:03:00,78.2,14.7,29.98,WNW,291,4.4,10.4,9,0.00,CLR,,0.00,WeatherDisplay:10.37,2013-05-16 16:03:00,
2013-05-16 12:05:00,77.9,8.8,29.98,West,267,8.8,13.8,7,0.00,CLR,,0.00,WeatherDisplay:10.37,2013-05-16 16:05:00,
2013-05-16 12:06:00,77.8,11.7,29.98,NW,318,5.6,9.4,8,0.00,CLR,,0.00,WeatherDisplay:10.37,2013-05-16 16:06:00,
2013-05-16 12:08:00,78.4,9.2,29.98,NNW,344,2.8,6.9,7,0.00,CLR,,0.00,WeatherDisplay:10.37,2013-05-16 16:08:00,
2013-05-16 12:09:00,78.8,9.5,29.98,NNW,344,2.0,5.8,7,0.00,CLR,,0.00,WeatherDisplay:10.37,2013-05-16 16:09:00,
2013-05-16 12:10:00,78.1,8.9,29.98,NW,319,4.8,10.4,7,0.00,CLR,,0.00,WeatherDisplay:10.37,2013-05-16 16:10:00,
2013-05-16 12:11:00,78.1,8.9,29.98,NW,311,6.3,8.1,7,0.00,CLR,,0.00,WeatherDisplay:10.37,2013-05-16 16:11:00,
2013-05-16 12:13:00,79.1,9.7,29.98,WNW,298,4.6,5.8,7,0.00,CLR,,0.00,WeatherDisplay:10.37,2013-05-16 16:13:00,
2013-05-16 12:14:00,79.7,10.1,29.98,WNW,298,5.0,8.1,7,0.00,CLR,,0.00,WeatherDisplay:10.37,2013-05-16 16:14:00,
2013-05-16 12:15:00,79.9,10.3,29.98,WNW,298,0.0,4.6,7,0.00,CLR,,0.00,WeatherDisplay:10.37,2013-05-16 16:15:00,
2013-05-16 12:16:00,79.3,9.8,29.98,West,268,0.8,5.8,7,0.00,CLR,,0.00,WeatherDisplay:10.37,2013-05-16 16:16:00,
2013-05-16 12:17:00,79.7,6.7,29.98,SSW,212,1.8,6.9,6,0.00,CLR,,0.00,WeatherDisplay:10.37,2013-05-16 16:17:00,
2013-05-16 12:18:00,79.0,6.2,29.98,SSW,212,0.0,3.5,6,0.00,CLR,,0.00,WeatherDisplay:10.37,2013-05-16 16:18:00,
2013-05-16 12:19:00,78.8,9.5,29.98,SSW,212,0.0,0.0,7,0.00,CLR,,0.00,WeatherDisplay:10.37,2013-05-16 16:19:00,
2013-05-16 12:21:00,80.5,7.3,29.98,SW,236,1.8,11.7,6,0.00,CLR,,0.00,WeatherDisplay:10.37,2013-05-16 16:21:00,
2013-05-16 12:22:00,79.9,10.3,29.98,West,281,6.6,11.5,7,0.00,CLR,,0.00,WeatherDisplay:10.37,2013-05-16 16:22:00,
2013-05-16 12:24:00,79.1,9.7,29.98,WNW,291,5.7,9.3,7,0.00,CLR,,0.00,WeatherDisplay:10.37,2013-05-16 16:24:00,
2013-05-16 12:25:00,78.3,9.1,29.98,WSW,239,4.0,9.2,7,0.00,CLR,,0.00,WeatherDisplay:10.37,2013-05-16 16:25:00,
2013-05-16 12:26:00,79.0,9.6,29.98,NW,305,1.8,8.1,7,0.00,CLR,,0.00,WeatherDisplay:10.37,2013-05-16 16:26:00,
2013-05-16 12:27:00,78.1,5.5,29.98,WNW,288,6.8,8.1,6,0.00,CLR,,0.00,WeatherDisplay:10.37,2013-05-16 16:27:00,
2013-05-16 12:29:00,78.2,9.0,29.98,West,263,3.5,8.1,7,0.00,CLR,,0.00,WeatherDisplay:10.37,2013-05-16 16:29:00,
2013-05-16 12:30:00,78.5,12.2,29.98,West,263,0.0,4.6,8,0.00,CLR,,0.00,WeatherDisplay:10.37,2013-05-16 16:30:00,
2013-05-16 12:31:00,78.3,12.1,29.98,WNW,302,2.7,4.6,8,0.00,CLR,,0.00,WeatherDisplay:10.37,2013-05-16 16:31:00,
2013-05-16 12:33:00,79.7,10.1,29.98,West,281,5.0,10.9,7,0.00,CLR,,0.00,WeatherDisplay:10.37,2013-05-16 16:33:00,
2013-05-16 12:34:00,78.9,9.5,29.98,SW,224,5.7,11.5,7,0.00,CLR,,0.00,WeatherDisplay:10.37,2013-05-16 16:34:00,
2013-05-16 12:35:00,79.8,10.2,29.98,SW,223,2.0,10.4,7,0.00,CLR,,0.00,WeatherDisplay:10.37,2013-05-16 16:35:00,
2013-05-16 12:36:00,79.2,12.8,29.98,WSW,239,2.7,9.8,8,0.00,CLR,,0.00,WeatherDisplay:10.37,2013-05-16 16:36:00,
2013-05-16 12:38:00,78.5,9.2,29.98,SSW,198,4.9,9.2,7,0.00,CLR,,0.00,WeatherDisplay:10.37,2013-05-16 16:38:00,
2013-05-16 12:39:00,79.8,10.2,29.98,WSW,241,3.4,8.1,7,0.00,CLR,,0.00,WeatherDisplay:10.37,2013-05-16 16:39:00,
2013-05-16 12:40:00,78.1,8.9,29.98,West,280,4.3,6.9,7,0.00,CLR,,0.00,WeatherDisplay:10.37,2013-05-16 16:40:00,
2013-05-16 12:41:00,78.7,12.4,29.98,West,274,0.0,8.1,8,0.00,CLR,,0.00,WeatherDisplay:10.37,2013-05-16 16:41:00,
2013-05-16 12:43:00,78.4,9.2,29.98,WNW,292,1.0,5.8,7,0.00,CLR,,0.00,WeatherDisplay:10.37,2013-05-16 16:43:00,
2013-05-16 12:44:00,77.9,14.5,29.98,WNW,292,0.0,0.0,9,0.00,CLR,,0.00,WeatherDisplay:10.37,2013-05-16 16:44:00,
2013-05-16 12:45:00,79.1,12.7,29.98,West,277,0.8,0.0,8,0.00,CLR,,0.00,WeatherDisplay:10.37,2013-05-16 16:45:00,
2013-05-16 12:46:00,78.3,12.1,29.98,SSW,205,1.6,5.8,8,0.00,CLR,,0.00,WeatherDisplay:10.37,2013-05-16 16:46:00,
2013-05-16 12:47:00,78.3,12.1,29.98,SSW,205,1.6,5.8,8,0.00,CLR,,0.00,WeatherDisplay:10.37,2013-05-16 16:47:00,
2013-05-16 12:48:00,78.9,9.5,29.98,SW,222,5.8,12.7,7,0.00,CLR,,0.00,WeatherDisplay:10.37,2013-05-16 16:48:00,
2013-05-16 12:49:00,78.4,14.8,29.98,SW,216,4.6,10.4,9,0.00,CLR,,0.00,WeatherDisplay:10.37,2013-05-16 16:49:00,
2013-05-16 12:51:00,78.2,9.0,29.98,NW,316,3.8,8.1,7,0.00,CLR,,0.00,WeatherDisplay:10.37,2013-05-16 16:51:00,
2013-05-16 12:53:00,78.2,9.0,29.98,WNW,298,6.3,8.3,7,0.00,CLR,,0.00,WeatherDisplay:10.37,2013-05-16 16:53:00,
2013-05-16 12:54:00,78.3,12.1,29.98,SSW,213,6.6,10.4,8,0.00,CLR,,0.00,WeatherDisplay:10.37,2013-05-16 16:54:00,
2013-05-16 12:56:00,78.7,15.1,29.98,WSW,248,5.8,9.2,9,0.00,CLR,,0.00,WeatherDisplay:10.37,2013-05-16 16:56:00,
2013-05-16 12:57:00,78.1,11.9,29.98,NNW,347,4.4,8.1,8,0.00,CLR,,0.00,WeatherDisplay:10.37,2013-05-16 16:57:00,
2013-05-16 12:59:00,78.5,14.9,29.98,SW,226,5.1,7.9,9,0.00,CLR,,0.00,WeatherDisplay:10.37,2013-05-16 16:59:00,
2013-05-16 13:01:00,79.5,13.0,29.98,SSW,208,2.9,9.2,8,0.00,CLR,,0.00,WeatherDisplay:10.37,2013-05-16 17:01:00,
2013-05-16 13:02:00,78.5,12.2,29.98,NE,45,0.9,4.6,8,0.00,CLR,,0.00,WeatherDisplay:10.37,2013-05-16 17:02:00,
2013-05-16 13:03:00,79.0,12.6,29.98,WNW,282,1.2,3.5,8,0.00,CLR,,0.00,WeatherDisplay:10.37,2013-05-16 17:03:00,
2013-05-16 13:04:00,79.0,12.6,29.98,SW,226,6.0,10.4,8,0.00,CLR,,0.00,WeatherDisplay:10.37,2013-05-16 17:04:00,
2013-05-16 13:05:00,78.2,12.0,29.98,West,268,5.1,10.4,8,0.00,CLR,,0.00,WeatherDisplay:10.37,2013-05-16 17:05:00,
2013-05-16 13:06:00,78.5,12.2,29.98,WNW,288,6.8,10.4,8,0.00,CLR,,0.00,WeatherDisplay:10.37,2013-05-16 17:06:00,
2013-05-16 13:07:00,79.1,17.8,29.98,SW,229,4.3,9.2,10,0.00,CLR,,0.00,WeatherDisplay:10.37,2013-05-16 17:07:00,
2013-05-16 13:08:00,79.3,15.5,29.98,West,264,3.4,8.1,9,0.00,CLR,,0.00,WeatherDisplay:10.37,2013-05-16 17:08:00,
2013-05-16 13:09:00,78.5,9.2,29.98,West,281,8.5,12.7,7,0.00,CLR,,0.00,WeatherDisplay:10.37,2013-05-16 17:09:00,
2013-05-16 13:10:00,79.0,9.6,29.98,NW,305,5.0,11.5,7,0.00,CLR,,0.00,WeatherDisplay:10.37,2013-05-16 17:10:00,
2013-05-16 13:12:00,79.3,9.8,29.98,SW,233,2.5,8.5,7,0.00,CLR,,0.00,WeatherDisplay:10.37,2013-05-16 17:12:00,
2013-05-16 13:13:00,79.9,10.3,29.98,SW,226,7.5,11.5,7,0.00,CLR,,0.00,WeatherDisplay:10.37,2013-05-16 17:13:00,
2013-05-16 13:14:00,79.1,9.7,29.98,West,265,5.2,8.1,7,0.00,CLR,,0.00,WeatherDisplay:10.37,2013-05-16 17:14:00,
2013-05-16 13:15:00,79.3,9.8,29.98,South,186,1.9,8.1,7,0.00,CLR,,0.00,WeatherDisplay:10.37,2013-05-16 17:15:00,
2013-05-16 13:17:00,80.2,7.1,29.97,South,171,8.1,10.4,6,0.00,CLR,,0.00,WeatherDisplay:10.37,2013-05-16 17:17:00,
2013-05-16 13:18:00,80.8,10.9,29.97,WSW,248,4.5,10.4,7,0.00,CLR,,0.00,WeatherDisplay:10.37,2013-05-16 17:18:00,
2013-05-16 13:19:00,80.3,10.6,29.98,WSW,248,1.2,5.8,7,0.00,CLR,,0.00,WeatherDisplay:10.37,2013-05-16 17:19:00,
2013-05-16 13:20:00,80.4,7.2,29.98,North,354,5.9,8.1,6,0.00,CLR,,0.00,WeatherDisplay:10.37,2013-05-16 17:20:00,
2013-05-16 13:22:00,79.1,9.7,29.98,WNW,285,6.2,10.4,7,0.00,CLR,,0.00,WeatherDisplay:10.37,2013-05-16 17:22:00,
2013-05-16 13:23:00,80.4,10.6,29.98,WNW,294,5.4,10.0,7,0.00,CLR,,0.00,WeatherDisplay:10.37,2013-05-16 17:23:00,
2013-05-16 13:24:00,80.0,6.9,29.98,SW,223,7.5,11.5,6,0.00,CLR,,0.00,WeatherDisplay:10.37,2013-05-16 17:24:00,
2013-05-16 13:25:00,79.9,10.3,29.97,WNW,301,1.8,9.2,7,0.00,CLR,,0.00,WeatherDisplay:10.37,2013-05-16 17:25:00,
2013-05-16 13:27:00,80.8,7.5,29.97,SW,232,5.0,8.4,6,0.00,CLR,,0.00,WeatherDisplay:10.37,2013-05-16 17:27:00,
2013-05-16 13:28:00,81.5,11.4,29.97,WNW,296,7.0,10.4,7,0.00,CLR,,0.00,WeatherDisplay:10.37,2013-05-16 17:28:00,
2013-05-16 13:29:00,80.2,7.1,29.98,NNW,333,5.1,8.1,6,0.00,CLR,,0.00,WeatherDisplay:10.37,2013-05-16 17:29:00,
2013-05-16 13:31:00,81.2,7.8,29.97,West,263,6.9,11.1,6,0.00,CLR,,0.00,WeatherDisplay:10.37,2013-05-16 17:31:00,
2013-05-16 13:32:00,80.6,7.3,29.97,WNW,282,6.0,16.1,6,0.00,CLR,,0.00,WeatherDisplay:10.37,2013-05-16 17:32:00,
2013-05-16 13:33:00,79.5,10.0,29.97,NNW,347,6.6,11.5,7,0.00,CLR,,0.00,WeatherDisplay:10.37,2013-05-16 17:33:00,
2013-05-16 13:34:00,79.5,6.5,29.97,West,265,6.4,13.8,6,0.00,CLR,,0.00,WeatherDisplay:10.37,2013-05-16 17:34:00,
2013-05-16 13:36:00,78.7,9.4,29.97,WNW,294,9.9,15.0,7,0.00,CLR,,0.00,WeatherDisplay:10.37,2013-05-16 17:36:00,
2013-05-16 13:37:00,79.1,9.7,29.97,WNW,287,4.1,11.5,7,0.00,CLR,,0.00,WeatherDisplay:10.37,2013-05-16 17:37:00,
2013-05-16 13:38:00,78.5,9.2,29.97,NNW,330,6.4,11.1,7,0.00,CLR,,0.00,WeatherDisplay:10.37,2013-05-16 17:38:00,
2013-05-16 13:40:00,78.7,12.4,29.97,WNW,292,3.1,6.9,8,0.00,CLR,,0.00,WeatherDisplay:10.37,2013-05-16 17:40:00,
2013-05-16 13:41:00,79.5,10.0,29.97,West,281,4.4,6.9,7,0.00,CLR,,0.00,WeatherDisplay:10.37,2013-05-16 17:41:00,
2013-05-16 13:42:00,79.2,9.8,29.97,SW,219,8.1,12.6,7,0.00,CLR,,0.00,WeatherDisplay:10.37,2013-05-16 17:42:00,
2013-05-16 13:43:00,78.9,9.5,29.97,WSW,257,8.5,12.7,7,0.00,CLR,,0.00,WeatherDisplay:10.37,2013-05-16 17:43:00,
2013-05-16 13:45:00,79.8,10.2,29.97,West,277,6.1,9.2,7,0.00,CLR,,0.00,WeatherDisplay:10.37,2013-05-16 17:45:00,
2013-05-16 13:46:00,79.5,10.0,29.97,NW,311,5.5,8.1,7,0.00,CLR,,0.00,WeatherDisplay:10.37,2013-05-16 17:46:00,
2013-05-16 13:48:00,79.7,13.1,29.97,NW,316,7.7,10.4,8,0.00,CLR,,0.00,WeatherDisplay:10.37,2013-05-16 17:48:00,
2013-05-16 13:49:00,78.5,9.2,29.97,West,264,5.5,8.1,7,0.00,CLR,,0.00,WeatherDisplay:10.37,2013-05-16 17:49:00,
2013-05-16 13:50:00,79.0,6.2,29.97,West,264,6.1,10.4,6,0.00,CLR,,0.00,WeatherDisplay:10.37,2013-05-16 17:50:00,
2013-05-16 13:51:00,78.9,6.1,29.97,WNW,291,10.3,12.7,6,0.00,CLR,,0.00,WeatherDisplay:10.37,2013-05-16 17:51:00,
2013-05-16 13:53:00,79.0,9.6,29.97,SSW,210,6.0,10.4,7,0.00,CLR,,0.00,WeatherDisplay:10.37,2013-05-16 17:53:00,
2013-05-16 13:54:00,79.3,9.8,29.97,West,264,6.8,11.5,7,0.00,CLR,,0.00,WeatherDisplay:10.37,2013-05-16 17:54:00,
2013-05-16 13:55:00,79.1,9.7,29.97,WSW,258,6.4,11.5,7,0.00,CLR,,0.00,WeatherDisplay:10.37,2013-05-16 17:55:00,
2013-05-16 13:56:00,78.7,9.4,29.97,WSW,237,9.4,13.8,7,0.00,CLR,,0.00,WeatherDisplay:10.37,2013-05-16 17:56:00,
2013-05-16 13:58:00,78.7,9.4,29.97,WSW,257,8.5,11.5,7,0.00,CLR,,0.00,WeatherDisplay:10.37,2013-05-16 17:58:00,
2013-05-16 13:59:00,79.2,6.3,29.97,WSW,237,9.0,13.8,6,0.00,CLR,,0.00,WeatherDisplay:10.37,2013-05-16 17:59:00,
2013-05-16 14:00:00,78.7,9.4,29.97,NW,319,8.9,13.8,7,0.00,CLR,,0.00,WeatherDisplay:10.37,2013-05-16 18:00:00,
2013-05-16 14:01:00,79.4,6.5,29.97,WSW,239,6.3,16.3,6,0.00,CLR,,0.00,WeatherDisplay:10.37,2013-05-16 18:01:00,
2013-05-16 14:03:00,79.3,9.8,29.97,SSW,202,4.6,16.1,7,0.00,CLR,,0.00,WeatherDisplay:10.37,2013-05-16 18:03:00,
2013-05-16 14:04:00,78.2,9.0,29.97,SW,224,5.6,10.4,7,0.00,CLR,,0.00,WeatherDisplay:10.37,2013-05-16 18:04:00,
2013-05-16 14:06:00,78.9,9.5,29.97,WNW,296,7.1,12.7,7,0.00,CLR,,0.00,WeatherDisplay:10.37,2013-05-16 18:06:00,
2013-05-16 14:08:00,78.9,9.5,29.97,WSW,258,2.3,11.5,7,0.00,CLR,,0.00,WeatherDisplay:10.37,2013-05-16 18:08:00,
2013-05-16 14:09:00,79.0,12.6,29.97,WSW,258,0.2,6.9,8,0.00,CLR,,0.00,WeatherDisplay:10.37,2013-05-16 18:09:00,
2013-05-16 14:10:00,78.3,9.1,29.97,SW,229,5.7,13.8,7,0.00,CLR,,0.00,WeatherDisplay:10.37,2013-05-16 18:10:00,
2013-05-16 14:11:00,79.9,10.3,29.97,WSW,257,5.2,11.5,7,0.00,CLR,,0.00,WeatherDisplay:10.37,2013-05-16 18:11:00,
2013-05-16 14:12:00,78.0,8.9,29.97,SW,224,8.1,12.8,7,0.00,CLR,,0.00,WeatherDisplay:10.37,2013-05-16 18:12:00,
2013-05-16 14:13:00,78.8,9.5,29.97,West,263,11.0,17.3,7,0.00,CLR,,0.00,WeatherDisplay:10.37,2013-05-16 18:13:00,
2013-05-16 14:14:00,78.8,9.5,29.97,West,270,11.0,18.4,7,0.00,CLR,,0.00,WeatherDisplay:10.37,2013-05-16 18:14:00,
2013-05-16 14:15:00,77.3,8.4,29.97,WSW,257,7.2,16.1,7,0.00,CLR,,0.00,WeatherDisplay:10.37,2013-05-16 18:15:00,
2013-05-16 14:16:00,77.3,8.4,29.97,West,281,8.1,10.4,7,0.00,CLR,,0.00,WeatherDisplay:10.37,2013-05-16 18:16:00,
2013-05-16 14:17:00,78.2,9.0,29.97,NW,312,9.3,13.8,7,0.00,CLR,,0.00,WeatherDisplay:10.37,2013-05-16 18:17:00,
2013-05-16 14:19:00,78.2,9.0,29.97,SW,224,3.8,5.8,7,0.00,CLR,,0.00,WeatherDisplay:10.37,2013-05-16 18:19:00,
2013-05-16 14:20:00,79.1,9.7,29.97,WSW,256,7.3,12.7,7,0.00,CLR,,0.00,WeatherDisplay:10.37,2013-05-16 18:20:00,
2013-05-16 14:21:00,78.0,8.9,29.97,NW,325,5.7,13.8,7,0.00,CLR,,0.00,WeatherDisplay:10.37,2013-05-16 18:21:00,
2013-05-16 14:22:00,78.0,8.9,29.97,WNW,287,5.4,11.5,7,0.00,CLR,,0.00,WeatherDisplay:10.37,2013-05-16 18:22:00,
2013-05-16 14:24:00,78.0,8.9,29.97,West,275,9.5,16.1,7,0.00,CLR,,0.00,WeatherDisplay:10.37,2013-05-16 18:24:00,
2013-05-16 14:25:00,78.0,8.9,29.97,SW,234,9.1,16.1,7,0.00,CLR,,0.00,WeatherDisplay:10.37,2013-05-16 18:25:00,
2013-05-16 14:26:00,79.1,12.7,29.97,SW,220,6.8,13.8,8,0.00,CLR,,0.00,WeatherDisplay:10.37,2013-05-16 18:26:00,
2013-05-16 14:27:00,77.8,11.7,29.97,WSW,246,6.2,9.2,8,0.00,CLR,,0.00,WeatherDisplay:10.37,2013-05-16 18:27:00,
2013-05-16 14:29:00,77.9,11.8,29.97,WNW,282,6.0,9.2,8,0.00,CLR,,0.00,WeatherDisplay:10.37,2013-05-16 18:29:00,
2013-05-16 14:30:00,78.0,8.9,29.97,SSW,205,8.1,11.5,7,0.00,CLR,,0.00,WeatherDisplay:10.37,2013-05-16 18:30:00,
2013-05-16 14:31:00,77.5,11.5,29.97,WSW,239,1.8,12.6,8,0.00,CLR,,0.00,WeatherDisplay:10.37,2013-05-16 18:31:00,
2013-05-16 14:33:00,77.9,11.8,29.97,WNW,295,8.8,16.1,8,0.00,CLR,,0.00,WeatherDisplay:10.37,2013-05-16 18:33:00,
2013-05-16 14:34:00,78.1,8.9,29.97,NNW,332,8.5,12.7,7,0.00,CLR,,0.00,WeatherDisplay:10.37,2013-05-16 18:34:00,
2013-05-16 14:35:00,77.8,8.7,29.97,SW,215,7.6,13.8,7,0.00,CLR,,0.00,WeatherDisplay:10.37,2013-05-16 18:35:00,
2013-05-16 14:37:00,77.5,11.5,29.97,SSW,202,4.2,10.4,8,0.00,CLR,,0.00,WeatherDisplay:10.37,2013-05-16 18:37:00,
2013-05-16 14:39:00,78.0,11.9,29.96,NNE,18,2.3,6.9,8,0.00,CLR,,0.00,WeatherDisplay:10.37,2013-05-16 18:39:00,
2013-05-16 14:40:00,79.0,12.6,29.97,WSW,256,4.6,8.4,8,0.00,CLR,,0.00,WeatherDisplay:10.37,2013-05-16 18:40:00,
2013-05-16 14:42:00,78.1,14.6,29.97,WSW,258,7.5,12.7,9,0.00,CLR,,0.00,WeatherDisplay:10.37,2013-05-16 18:42:00,
2013-05-16 14:43:00,78.0,8.9,29.97,NNW,346,8.2,12.7,7,0.00,CLR,,0.00,WeatherDisplay:10.37,2013-05-16 18:43:00,
2013-05-16 14:44:00,77.4,11.4,29.97,SW,223,7.1,11.5,8,0.00,CLR,,0.00,WeatherDisplay:10.37,2013-05-16 18:44:00,
2013-05-16 14:46:00,77.7,11.6,29.97,SW,229,6.5,10.4,8,0.00,CLR,,0.00,WeatherDisplay:10.37,2013-05-16 18:46:00,
2013-05-16 14:47:00,77.5,11.5,29.97,West,265,7.7,15.0,8,0.00,CLR,,0.00,WeatherDisplay:10.37,2013-05-16 18:47:00,
2013-05-16 14:48:00,78.7,12.4,29.97,WNW,292,3.8,12.7,8,0.00,CLR,,0.00,WeatherDisplay:10.37,2013-05-16 18:48:00,
2013-05-16 14:49:00,77.9,11.8,29.97,SW,217,9.3,15.0,8,0.00,CLR,,0.00,WeatherDisplay:10.37,2013-05-16 18:49:00,
2013-05-16 14:50:00,77.4,11.4,29.97,WSW,240,8.9,17.3,8,0.00,CLR,,0.00,WeatherDisplay:10.37,2013-05-16 18:50:00,
2013-05-16 14:51:00,77.9,11.8,29.97,West,270,7.4,12.7,8,0.00,CLR,,0.00,WeatherDisplay:10.37,2013-05-16 18:51:00,
2013-05-16 14:52:00,77.9,11.8,29.97,NW,316,6.2,8.1,8,0.00,CLR,,0.00,WeatherDisplay:10.37,2013-05-16 18:52:00,
2013-05-16 14:54:00,78.3,12.1,29.97,WSW,253,7.6,12.7,8,0.00,CLR,,0.00,WeatherDisplay:10.37,2013-05-16 18:54:00,
2013-05-16 14:55:00,77.1,11.2,29.97,SW,226,5.5,12.7,8,0.00,CLR,,0.00,WeatherDisplay:10.37,2013-05-16 18:55:00,
2013-05-16 14:56:00,78.1,11.9,29.96,SW,227,3.3,8.2,8,0.00,CLR,,0.00,WeatherDisplay:10.37,2013-05-16 18:56:00,
2013-05-16 14:57:00,78.1,11.9,29.96,NNW,346,5.8,8.1,8,0.00,CLR,,0.00,WeatherDisplay:10.37,2013-05-16 18:57:00,
2013-05-16 14:59:00,77.4,8.4,29.96,West,277,9.5,14.6,7,0.00,CLR,,0.00,WeatherDisplay:10.37,2013-05-16 18:59:00,
2013-05-16 15:00:00,78.4,9.2,29.96,WSW,250,9.1,18.4,7,0.00,CLR,,0.00,WeatherDisplay:10.37,2013-05-16 19:00:00,
2013-05-16 15:01:00,78.4,14.8,29.96,NW,319,3.3,5.8,9,0.00,CLR,,0.00,WeatherDisplay:10.37,2013-05-16 19:01:00,
2013-05-16 15:03:00,78.0,8.9,29.96,WSW,257,3.6,6.9,7,0.00,CLR,,0.00,WeatherDisplay:10.37,2013-05-16 19:03:00,
2013-05-16 15:04:00,78.4,9.2,29.96,WNW,284,8.0,17.3,7,0.00,CLR,,0.00,WeatherDisplay:10.37,2013-05-16 19:04:00,
2013-05-16 15:05:00,79.0,9.6,29.96,SW,236,7.8,17.3,7,0.00,CLR,,0.00,WeatherDisplay:10.37,2013-05-16 19:05:00,
2013-05-16 15:06:00,78.3,9.1,29.96,West,261,9.2,16.1,7,0.00,CLR,,0.00,WeatherDisplay:10.37,2013-05-16 19:06:00,
2013-05-16 15:08:00,77.9,8.8,29.96,South,179,9.2,17.3,7,0.00,CLR,,0.00,WeatherDisplay:10.37,2013-05-16 19:08:00,
2013-05-16 15:09:00,79.4,9.9,29.96,West,267,7.2,13.8,7,0.00,CLR,,0.00,WeatherDisplay:10.37,2013-05-16 19:09:00,
2013-05-16 15:10:00,78.9,12.5,29.96,WSW,256,5.6,9.3,8,0.00,CLR,,0.00,WeatherDisplay:10.37,2013-05-16 19:10:00,
2013-05-16 15:11:00,78.5,12.2,29.96,NW,326,4.5,9.2,8,0.00,CLR,,0.00,WeatherDisplay:10.37,2013-05-16 19:11:00,
2013-05-16 15:12:00,78.7,9.4,29.96,West,271,7.5,13.8,7,0.00,CLR,,0.00,WeatherDisplay:10.37,2013-05-16 19:12:00,
2013-05-16 15:14:00,78.0,8.9,29.95,WNW,296,9.8,17.3,7,0.00,CLR,,0.00,WeatherDisplay:10.37,2013-05-16 19:14:00,
2013-05-16 15:15:00,79.3,9.8,29.95,West,268,5.8,11.5,7,0.00,CLR,,0.00,WeatherDisplay:10.37,2013-05-16 19:15:00,
2013-05-16 15:16:00,79.3,9.8,29.95,SW,224,6.7,13.2,7,0.00,CLR,,0.00,WeatherDisplay:10.37,2013-05-16 19:16:00,
2013-05-16 15:18:00,77.8,8.7,29.95,WNW,298,10.3,15.0,7,0.00,CLR,,0.00,WeatherDisplay:10.37,2013-05-16 19:18:00,
2013-05-16 15:19:00,79.2,12.8,29.95,SW,216,8.0,12.7,8,0.00,CLR,,0.00,WeatherDisplay:10.37,2013-05-16 19:19:00,
2013-05-16 15:21:00,79.0,9.6,29.95,WSW,254,7.3,11.5,7,0.00,CLR,,0.00,WeatherDisplay:10.37,2013-05-16 19:21:00,
2013-05-16 15:23:00,80.8,10.9,29.95,South,175,3.5,6.9,7,0.00,CLR,,0.00,WeatherDisplay:10.37,2013-05-16 19:23:00,
2013-05-16 15:24:00,80.2,7.1,29.95,West,281,4.7,9.3,6,0.00,CLR,,0.00,WeatherDisplay:10.37,2013-05-16 19:24:00,
2013-05-16 15:26:00,79.9,10.3,29.95,NW,311,9.1,16.1,7,0.00,CLR,,0.00,WeatherDisplay:10.37,2013-05-16 19:26:00,
2013-05-16 15:29:00,80.0,10.3,29.95,West,278,4.5,7.8,7,0.00,CLR,,0.00,WeatherDisplay:10.37,2013-05-16 19:29:00,
2013-05-16 15:30:00,80.5,10.7,29.95,West,278,6.7,10.4,7,0.00,CLR,,0.00,WeatherDisplay:10.37,2013-05-16 19:30:00,
2013-05-16 15:31:00,79.1,9.7,29.95,WNW,301,5.8,10.4,7,0.00,CLR,,0.00,WeatherDisplay:10.37,2013-05-16 19:31:00,
2013-05-16 15:32:00,80.7,10.9,29.94,WNW,296,7.3,11.5,7,0.00,CLR,,0.00,WeatherDisplay:10.37,2013-05-16 19:32:00,
2013-05-16 15:34:00,78.8,6.0,29.94,WNW,288,8.9,10.4,6,0.00,CLR,,0.00,WeatherDisplay:10.37,2013-05-16 19:34:00,
2013-05-16 15:35:00,79.3,6.4,29.94,WSW,237,5.9,15.0,6,0.00,CLR,,0.00,WeatherDisplay:10.37,2013-05-16 19:35:00,
2013-05-16 15:36:00,79.2,6.3,29.94,West,260,7.4,11.5,6,0.00,CLR,,0.00,WeatherDisplay:10.37,2013-05-16 19:36:00,
2013-05-16 15:37:00,80.3,7.1,29.94,West,268,7.4,9.2,6,0.00,CLR,,0.00,WeatherDisplay:10.37,2013-05-16 19:37:00,
2013-05-16 15:39:00,80.3,7.1,29.94,WNW,299,8.8,17.0,6,0.00,CLR,,0.00,WeatherDisplay:10.37,2013-05-16 19:39:00,
2013-05-16 15:40:00,79.1,9.7,29.94,West,261,11.8,17.3,7,0.00,CLR,,0.00,WeatherDisplay:10.37,2013-05-16 19:40:00,
2013-05-16 15:41:00,78.8,12.5,29.94,WNW,291,8.0,17.0,8,0.00,CLR,,0.00,WeatherDisplay:10.37,2013-05-16 19:41:00,
2013-05-16 15:42:00,78.5,9.2,29.94,West,277,9.2,17.3,7,0.00,CLR,,0.00,WeatherDisplay:10.37,2013-05-16 19:42:00,
2013-05-16 15:44:00,78.0,8.9,29.94,West,267,9.0,17.3,7,0.00,CLR,,0.00,WeatherDisplay:10.37,2013-05-16 19:44:00,
2013-05-16 15:45:00,78.3,9.1,29.94,West,260,7.9,13.8,7,0.00,CLR,,0.00,WeatherDisplay:10.37,2013-05-16 19:45:00,
2013-05-16 15:46:00,78.7,9.4,29.94,NW,320,9.3,11.5,7,0.00,CLR,,0.00,WeatherDisplay:10.37,2013-05-16 19:46:00,
2013-05-16 15:48:00,78.2,5.6,29.94,WNW,298,5.3,8.1,6,0.00,CLR,,0.00,WeatherDisplay:10.37,2013-05-16 19:48:00,
2013-05-16 15:49:00,79.7,10.1,29.94,West,264,5.1,9.2,7,0.00,CLR,,0.00,WeatherDisplay:10.37,2013-05-16 19:49:00,
2013-05-16 15:50:00,78.1,8.9,29.94,NNE,17,9.0,13.8,7,0.00,CLR,,0.00,WeatherDisplay:10.37,2013-05-16 19:50:00,
2013-05-16 15:51:00,78.2,5.6,29.94,West,277,7.6,12.7,6,0.00,CLR,,0.00,WeatherDisplay:10.37,2013-05-16 19:51:00,
2013-05-16 15:53:00,78.4,5.8,29.94,SW,224,8.2,12.9,6,0.00,CLR,,0.00,WeatherDisplay:10.37,2013-05-16 19:53:00,
2013-05-16 15:55:00,78.4,9.2,29.94,West,275,7.1,15.0,7,0.00,CLR,,0.00,WeatherDisplay:10.37,2013-05-16 19:55:00,
2013-05-16 15:56:00,78.1,8.9,29.94,West,281,7.8,12.7,7,0.00,CLR,,0.00,WeatherDisplay:10.37,2013-05-16 19:56:00,
2013-05-16 15:58:00,78.1,8.9,29.94,NW,325,5.4,10.4,7,0.00,CLR,,0.00,WeatherDisplay:10.37,2013-05-16 19:58:00,
2013-05-16 16:00:00,78.4,5.8,29.94,WSW,251,6.9,18.4,6,0.00,CLR,,0.00,WeatherDisplay:10.37,2013-05-16 20:00:00,
2013-05-16 16:01:00,78.9,6.1,29.94,West,264,6.4,10.4,6,0.00,CLR,,0.00,WeatherDisplay:10.37,2013-05-16 20:01:00,
2013-05-16 16:02:00,78.3,5.7,29.94,SW,222,3.0,9.2,6,0.00,CLR,,0.00,WeatherDisplay:10.37,2013-05-16 20:02:00,
2013-05-16 16:03:00,78.2,5.6,29.94,WNW,282,8.6,15.0,6,0.00,CLR,,0.00,WeatherDisplay:10.37,2013-05-16 20:03:00,
2013-05-16 16:05:00,79.4,9.9,29.94,West,260,4.5,9.2,7,0.00,CLR,,0.00,WeatherDisplay:10.37,2013-05-16 20:05:00,
2013-05-16 16:06:00,78.8,6.0,29.94,WSW,239,2.8,11.5,6,0.00,CLR,,0.00,WeatherDisplay:10.37,2013-05-16 20:06:00,
2013-05-16 16:07:00,79.5,6.5,29.94,West,271,5.3,10.4,6,0.00,CLR,,0.00,WeatherDisplay:10.37,2013-05-16 20:07:00,
2013-05-16 16:08:00,80.4,7.2,29.94,WNW,289,5.1,9.2,6,0.00,CLR,,0.00,WeatherDisplay:10.37,2013-05-16 20:08:00,
2013-05-16 16:10:00,78.7,6.0,29.94,WSW,248,7.9,13.8,6,0.00,CLR,,0.00,WeatherDisplay:10.37,2013-05-16 20:10:00,
2013-05-16 16:11:00,79.0,9.6,29.94,South,174,7.3,11.5,7,0.00,CLR,,0.00,WeatherDisplay:10.37,2013-05-16 20:11:00,
2013-05-16 16:13:00,79.8,10.2,29.94,NNW,330,3.5,10.4,7,0.00,CLR,,0.00,WeatherDisplay:10.37,2013-05-16 20:13:00,
2013-05-16 16:16:00,80.4,7.2,29.94,South,176,5.6,9.2,6,0.00,CLR,,0.00,WeatherDisplay:10.37,2013-05-16 20:16:00,
2013-05-16 16:17:00,80.3,10.6,29.94,WNW,299,5.3,9.2,7,0.00,CLR,,0.00,WeatherDisplay:10.37,2013-05-16 20:17:00,
2013-05-16 16:18:00,79.4,9.9,29.94,West,270,7.8,12.7,7,0.00,CLR,,0.00,WeatherDisplay:10.37,2013-05-16 20:18:00,
2013-05-16 16:19:00,80.0,6.9,29.94,NW,311,4.4,10.4,6,0.00,CLR,,0.00,WeatherDisplay:10.37,2013-05-16 20:19:00,
2013-05-16 16:21:00,79.4,6.5,29.94,NW,313,5.5,8.1,6,0.00,CLR,,0.00,WeatherDisplay:10.37,2013-05-16 20:21:00,
2013-05-16 16:22:00,80.2,7.1,29.94,NW,315,7.9,12.7,6,0.00,CLR,,0.00,WeatherDisplay:10.37,2013-05-16 20:22:00,
2013-05-16 16:23:00,78.9,6.1,29.94,WNW,282,8.5,13.8,6,0.00,CLR,,0.00,WeatherDisplay:10.37,2013-05-16 20:23:00,
2013-05-16 16:24:00,80.6,7.3,29.94,West,265,9.1,13.8,6,0.00,CLR,,0.00,WeatherDisplay:10.37,2013-05-16 20:24:00,
2013-05-16 16:26:00,78.9,9.5,29.94,WSW,237,2.6,12.7,7,0.00,CLR,,0.00,WeatherDisplay:10.37,2013-05-16 20:26:00,
2013-05-16 16:27:00,78.7,9.4,29.94,WNW,289,5.1,9.2,7,0.00,CLR,,0.00,WeatherDisplay:10.37,2013-05-16 20:27:00,
2013-05-16 16:29:00,80.3,7.1,29.94,WSW,247,5.6,9.2,6,0.00,CLR,,0.00,WeatherDisplay:10.37,2013-05-16 20:29:00,
2013-05-16 16:31:00,79.7,6.7,29.94,NW,315,5.3,17.3,6,0.00,CLR,,0.00,WeatherDisplay:10.37,2013-05-16 20:31:00,
2013-05-16 16:32:00,80.3,7.1,29.94,West,280,4.5,11.5,6,0.00,CLR,,0.00,WeatherDisplay:10.37,2013-05-16 20:32:00,
2013-05-16 16:34:00,79.3,6.4,29.94,West,261,4.0,8.1,6,0.00,CLR,,0.00,WeatherDisplay:10.37,2013-05-16 20:34:00,
2013-05-16 16:36:00,80.0,6.9,29.94,North,360,8.0,10.4,6,0.00,CLR,,0.00,WeatherDisplay:10.37,2013-05-16 20:36:00,
2013-05-16 16:37:00,79.4,6.5,29.94,North,353,7.8,10.4,6,0.00,CLR,,0.00,WeatherDisplay:10.37,2013-05-16 20:37:00,
2013-05-16 16:39:00,79.0,9.6,29.94,NW,325,5.9,13.8,7,0.00,CLR,,0.00,WeatherDisplay:10.37,2013-05-16 20:39:00,
2013-05-16 16:42:00,79.9,6.8,29.94,West,260,6.4,12.7,6,0.00,CLR,,0.00,WeatherDisplay:10.37,2013-05-16 20:42:00,
2013-05-16 16:43:00,78.9,6.1,29.94,WSW,237,3.5,11.5,6,0.00,CLR,,0.00,WeatherDisplay:10.37,2013-05-16 20:43:00,
2013-05-16 16:44:00,80.3,7.1,29.94,NW,305,4.5,5.3,6,0.00,CLR,,0.00,WeatherDisplay:10.37,2013-05-16 20:44:00,
2013-05-16 16:45:00,79.7,6.7,29.94,WNW,294,6.9,10.4,6,0.00,CLR,,0.00,WeatherDisplay:10.37,2013-05-16 20:45:00,
2013-05-16 16:47:00,80.3,7.1,29.94,WNW,288,3.5,9.2,6,0.00,CLR,,0.00,WeatherDisplay:10.37,2013-05-16 20:47:00,
2013-05-16 16:48:00,80.9,11.0,29.94,WNW,284,3.5,8.1,7,0.00,CLR,,0.00,WeatherDisplay:10.37,2013-05-16 20:48:00,
2013-05-16 16:49:00,79.7,6.7,29.94,WSW,248,6.1,11.5,6,0.00,CLR,,0.00,WeatherDisplay:10.37,2013-05-16 20:49:00,
2013-05-16 16:50:00,80.4,7.2,29.94,West,264,5.5,9.2,6,0.00,CLR,,0.00,WeatherDisplay:10.37,2013-05-16 20:50:00,
2013-05-16 16:52:00,80.0,6.9,29.94,West,265,7.3,8.5,6,0.00,CLR,,0.00,WeatherDisplay:10.37,2013-05-16 20:52:00,
2013-05-16 16:53:00,79.8,6.8,29.94,West,278,5.8,12.7,6,0.00,CLR,,0.00,WeatherDisplay:10.37,2013-05-16 20:53:00,
2013-05-16 16:54:00,79.3,6.4,29.94,WNW,289,4.8,9.2,6,0.00,CLR,,0.00,WeatherDisplay:10.37,2013-05-16 20:54:00,
2013-05-16 16:55:00,79.9,6.8,29.94,WNW,289,0.0,4.6,6,0.00,CLR,,0.00,WeatherDisplay:10.37,2013-05-16 20:55:00,
2013-05-16 16:57:00,80.0,6.9,29.94,WSW,239,9.5,16.1,6,0.00,CLR,,0.00,WeatherDisplay:10.37,2013-05-16 20:57:00,
2013-05-16 16:58:00,79.0,6.2,29.94,WSW,251,8.4,11.5,6,0.00,CLR,,0.00,WeatherDisplay:10.37,2013-05-16 20:58:00,
2013-05-16 16:59:00,79.1,6.3,29.94,SSW,195,7.7,11.5,6,0.00,CLR,,0.00,WeatherDisplay:10.37,2013-05-16 20:59:00,
2013-05-16 17:00:00,79.9,6.8,29.94,West,280,4.7,10.4,6,0.00,CLR,,0.00,WeatherDisplay:10.37,2013-05-16 21:00:00,
2013-05-16 17:02:00,80.0,6.9,29.94,SSW,198,5.0,6.9,6,0.00,CLR,,0.00,WeatherDisplay:10.37,2013-05-16 21:02:00,
2013-05-16 17:03:00,79.2,6.3,29.94,NW,308,6.6,8.1,6,0.00,CLR,,0.00,WeatherDisplay:10.37,2013-05-16 21:03:00,
2013-05-16 17:04:00,78.9,6.1,29.94,NW,305,7.1,10.4,6,0.00,CLR,,0.00,WeatherDisplay:10.37,2013-05-16 21:04:00,
2013-05-16 17:05:00,78.3,5.7,29.94,West,272,6.7,10.4,6,0.00,CLR,,0.00,WeatherDisplay:10.37,2013-05-16 21:05:00,
2013-05-16 17:07:00,78.8,6.0,29.94,WNW,302,3.9,5.3,6,0.00,CLR,,0.00,WeatherDisplay:10.37,2013-05-16 21:07:00,
2013-05-16 17:08:00,79.9,10.3,29.94,WNW,291,1.0,7.0,7,0.00,CLR,,0.00,WeatherDisplay:10.37,2013-05-16 21:08:00,
2013-05-16 17:09:00,79.4,6.5,29.94,SW,234,3.7,9.2,6,0.00,CLR,,0.00,WeatherDisplay:10.37,2013-05-16 21:09:00,
2013-05-16 17:10:00,80.2,7.1,29.94,WNW,288,3.6,9.2,6,0.00,CLR,,0.00,WeatherDisplay:10.37,2013-05-16 21:10:00,
2013-05-16 17:12:00,79.7,10.1,29.94,South,184,4.8,9.4,7,0.00,CLR,,0.00,WeatherDisplay:10.37,2013-05-16 21:12:00,
2013-05-16 17:13:00,79.7,6.7,29.94,SSW,206,6.7,10.4,6,0.00,CLR,,0.00,WeatherDisplay:10.37,2013-05-16 21:13:00,
2013-05-16 17:14:00,79.9,6.8,29.94,NW,304,6.0,10.4,6,0.00,CLR,,0.00,WeatherDisplay:10.37,2013-05-16 21:14:00,
2013-05-16 17:15:00,79.1,6.3,29.94,North,360,5.7,11.5,6,0.00,CLR,,0.00,WeatherDisplay:10.37,2013-05-16 21:15:00,
2013-05-16 17:17:00,79.1,6.3,29.94,West,272,6.7,15.0,6,0.00,CLR,,0.00,WeatherDisplay:10.37,2013-05-16 21:17:00,
2013-05-16 17:19:00,80.1,7.0,29.94,WNW,294,5.0,9.2,6,0.00,CLR,,0.00,WeatherDisplay:10.37,2013-05-16 21:19:00,
2013-05-16 17:20:00,79.1,6.3,29.94,West,274,8.4,12.7,6,0.00,CLR,,0.00,WeatherDisplay:10.37,2013-05-16 21:20:00,
2013-05-16 17:23:00,79.5,6.5,29.94,SW,216,5.5,9.2,6,0.00,CLR,,0.00,WeatherDisplay:10.37,2013-05-16 21:23:00,
2013-05-16 17:24:00,80.8,7.5,29.94,SW,229,5.8,8.1,6,0.00,CLR,,0.00,WeatherDisplay:10.37,2013-05-16 21:24:00,
2013-05-16 17:25:00,80.3,10.6,29.94,South,182,5.5,10.4,7,0.00,CLR,,0.00,WeatherDisplay:10.37,2013-05-16 21:25:00,
2013-05-16 17:28:00,81.5,8.0,29.94,West,260,4.9,11.2,6,0.00,CLR,,0.00,WeatherDisplay:10.37,2013-05-16 21:28:00,
2013-05-16 17:29:00,80.4,7.2,29.94,WNW,289,6.1,11.5,6,0.00,CLR,,0.00,WeatherDisplay:10.37,2013-05-16 21:29:00,
2013-05-16 17:30:00,80.2,7.1,29.94,SW,227,5.4,12.7,6,0.00,CLR,,0.00,WeatherDisplay:10.37,2013-05-16 21:30:00,
2013-05-16 17:33:00,79.4,9.9,29.94,WNW,291,3.9,10.4,7,0.00,CLR,,0.00,WeatherDisplay:10.37,2013-05-16 21:33:00,
2013-05-16 17:34:00,81.4,7.9,29.94,West,270,4.8,10.4,6,0.00,CLR,,0.00,WeatherDisplay:10.37,2013-05-16 21:34:00,
2013-05-16 17:35:00,80.4,10.6,29.94,NW,305,6.5,11.5,7,0.00,CLR,,0.00,WeatherDisplay:10.37,2013-05-16 21:35:00,
2013-05-16 17:38:00,80.9,14.0,29.94,West,274,3.2,8.5,8,0.00,CLR,,0.00,WeatherDisplay:10.37,2013-05-16 21:38:00,
2013-05-16 17:39:00,80.8,7.5,29.95,SW,227,4.6,9.2,6,0.00,CLR,,0.00,WeatherDisplay:10.37,2013-05-16 21:39:00,
2013-05-16 17:40:00,79.8,6.8,29.95,WSW,256,4.6,8.1,6,0.00,CLR,,0.00,WeatherDisplay:10.37,2013-05-16 21:40:00,
2013-05-16 17:41:00,79.5,10.0,29.95,WNW,291,5.4,6.9,7,0.00,CLR,,0.00,WeatherDisplay:10.37,2013-05-16 21:41:00,
2013-05-16 17:43:00,80.3,10.6,29.95,SW,223,7.6,11.5,7,0.00,CLR,,0.00,WeatherDisplay:10.37,2013-05-16 21:43:00,
2013-05-16 17:44:00,79.2,9.8,29.95,SSW,208,6.8,11.5,7,0.00,CLR,,0.00,WeatherDisplay:10.37,2013-05-16 21:44:00,
2013-05-16 17:45:00,80.3,10.6,29.94,WNW,298,3.4,10.4,7,0.00,CLR,,0.00,WeatherDisplay:10.37,2013-05-16 21:45:00,
2013-05-16 17:46:00,79.8,10.2,29.94,West,277,1.7,6.9,7,0.00,CLR,,0.00,WeatherDisplay:10.37,2013-05-16 21:46:00,
2013-05-16 17:48:00,79.3,9.8,29.95,WNW,294,3.2,6.9,7,0.00,CLR,,0.00,WeatherDisplay:10.37,2013-05-16 21:48:00,
2013-05-16 17:50:00,80.3,10.6,29.94,WSW,237,4.4,10.5,7,0.00,CLR,,0.00,WeatherDisplay:10.37,2013-05-16 21:50:00,
2013-05-16 17:51:00,79.7,10.1,29.94,West,277,4.0,10.4,7,0.00,CLR,,0.00,WeatherDisplay:10.37,2013-05-16 21:51:00,
2013-05-16 17:54:00,80.4,10.6,29.95,SW,236,2.9,5.8,7,0.00,CLR,,0.00,WeatherDisplay:10.37,2013-05-16 21:54:00,
2013-05-16 17:55:00,79.5,6.5,29.95,WSW,250,4.6,8.1,6,0.00,CLR,,0.00,WeatherDisplay:10.37,2013-05-16 21:55:00,
2013-05-16 17:56:00,79.1,9.7,29.94,West,271,6.7,9.2,7,0.00,CLR,,0.00,WeatherDisplay:10.37,2013-05-16 21:56:00,
2013-05-16 17:59:00,79.2,9.8,29.95,SSW,210,0.0,0.0,7,0.00,CLR,,0.00,WeatherDisplay:10.37,2013-05-16 21:59:00,
2013-05-16 18:00:00,79.8,10.2,29.95,SW,223,4.9,8.1,7,0.00,CLR,,0.00,WeatherDisplay:10.37,2013-05-16 22:00:00,
2013-05-16 18:01:00,80.0,10.3,29.94,West,280,5.7,10.4,7,0.00,CLR,,0.00,WeatherDisplay:10.37,2013-05-16 22:01:00,
2013-05-16 18:04:00,78.9,9.5,29.94,WNW,295,0.7,7.9,7,0.00,CLR,,0.00,WeatherDisplay:10.37,2013-05-16 22:04:00,
2013-05-16 18:05:00,79.7,10.1,29.94,WNW,282,5.1,9.2,7,0.00,CLR,,0.00,WeatherDisplay:10.37,2013-05-16 22:05:00,
2013-05-16 18:06:00,78.1,11.9,29.94,WNW,282,1.3,4.6,8,0.00,CLR,,0.00,WeatherDisplay:10.37,2013-05-16 22:06:00,
2013-05-16 18:09:00,79.1,9.7,29.94,WSW,244,2.0,5.8,7,0.00,CLR,,0.00,WeatherDisplay:10.37,2013-05-16 22:09:00,
2013-05-16 18:10:00,79.4,9.9,29.94,NW,304,0.9,4.6,7,0.00,CLR,,0.00,WeatherDisplay:10.37,2013-05-16 22:10:00,
2013-05-16 18:11:00,80.1,10.4,29.94,WNW,284,1.6,3.5,7,0.00,CLR,,0.00,WeatherDisplay:10.37,2013-05-16 22:11:00,
2013-05-16 18:14:00,80.1,10.4,29.94,WSW,248,1.1,0.0,7,0.00,CLR,,0.00,WeatherDisplay:10.37,2013-05-16 22:14:00,
2013-05-16 18:15:00,80.5,10.7,29.94,West,263,3.0,8.1,7,0.00,CLR,,0.00,WeatherDisplay:10.37,2013-05-16 22:15:00,
2013-05-16 18:16:00,79.1,6.3,29.94,WNW,284,1.0,6.9,6,0.00,CLR,,0.00,WeatherDisplay:10.37,2013-05-16 22:16:00,
2013-05-16 18:17:00,80.2,7.1,29.94,SW,215,2.1,4.6,6,0.00,CLR,,0.00,WeatherDisplay:10.37,2013-05-16 22:17:00,
2013-05-16 18:19:00,79.7,6.7,29.94,West,275,3.2,8.1,6,0.00,CLR,,0.00,WeatherDisplay:10.37,2013-05-16 22:19:00,
2013-05-16 18:20:00,80.7,10.9,29.94,West,275,0.0,5.8,7,0.00,CLR,,0.00,WeatherDisplay:10.37,2013-05-16 22:20:00,
2013-05-16 18:21:00,80.3,10.6,29.94,West,275,0.0,0.0,7,0.00,CLR,,0.00,WeatherDisplay:10.37,2013-05-16 22:21:00,
2013-05-16 18:22:00,81.3,11.3,29.94,West,275,1.1,3.5,7,0.00,CLR,,0.00,WeatherDisplay:10.37,2013-05-16 22:22:00,
2013-05-16 18:24:00,80.4,10.6,29.94,West,275,0.0,0.0,7,0.00,CLR,,0.00,WeatherDisplay:10.37,2013-05-16 22:24:00,
2013-05-16 18:25:00,80.9,11.0,29.94,West,275,0.0,0.0,7,0.00,CLR,,0.00,WeatherDisplay:10.37,2013-05-16 22:25:00,
2013-05-16 18:26:00,81.9,11.7,29.94,West,275,0.0,0.0,7,0.00,CLR,,0.00,WeatherDisplay:10.37,2013-05-16 22:26:00,
2013-05-16 18:27:00,79.4,9.9,29.94,West,275,0.0,0.0,7,0.00,CLR,,0.00,WeatherDisplay:10.37,2013-05-16 22:27:00,
2013-05-16 18:29:00,80.2,10.5,29.94,West,275,0.0,0.0,7,0.00,CLR,,0.00,WeatherDisplay:10.37,2013-05-16 22:29:00,
2013-05-16 18:31:00,80.4,10.6,29.94,WNW,285,1.9,6.9,7,0.00,CLR,,0.00,WeatherDisplay:10.37,2013-05-16 22:31:00,
2013-05-16 18:32:00,79.3,9.8,29.94,WNW,285,0.0,4.6,7,0.00,CLR,,0.00,WeatherDisplay:10.37,2013-05-16 22:32:00,
2013-05-16 18:34:00,78.5,9.2,29.94,West,281,3.8,6.9,7,0.00,CLR,,0.00,WeatherDisplay:10.37,2013-05-16 22:34:00,
2013-05-16 18:36:00,79.3,9.8,29.94,West,261,2.9,6.9,7,0.00,CLR,,0.00,WeatherDisplay:10.37,2013-05-16 22:36:00,
2013-05-16 18:37:00,79.2,9.8,29.94,West,261,1.4,5.8,7,0.00,CLR,,0.00,WeatherDisplay:10.37,2013-05-16 22:37:00,
2013-05-16 18:39:00,79.9,10.3,29.94,WNW,282,3.6,7.4,7,0.00,CLR,,0.00,WeatherDisplay:10.37,2013-05-16 22:39:00,
2013-05-16 18:41:00,78.0,8.9,29.94,WNW,285,6.1,10.4,7,0.00,CLR,,0.00,WeatherDisplay:10.37,2013-05-16 22:41:00,
2013-05-16 18:42:00,79.0,9.6,29.94,WNW,285,3.3,8.1,7,0.00,CLR,,0.00,WeatherDisplay:10.37,2013-05-16 22:42:00,
2013-05-16 18:45:00,79.0,12.6,29.94,West,268,0.0,3.5,8,0.00,CLR,,0.00,WeatherDisplay:10.37,2013-05-16 22:45:00,
2013-05-16 18:46:00,78.4,9.2,29.94,WSW,243,2.4,4.6,7,0.00,CLR,,0.00,WeatherDisplay:10.37,2013-05-16 22:46:00,
2013-05-16 18:47:00,78.4,9.2,29.94,West,277,2.4,7.0,7,0.00,CLR,,0.00,WeatherDisplay:10.37,2013-05-16 22:47:00,
2013-05-16 18:48:00,79.7,10.1,29.94,WNW,284,5.1,7.3,7,0.00,CLR,,0.00,WeatherDisplay:10.37,2013-05-16 22:48:00,
2013-05-16 18:50:00,77.8,11.7,29.94,WNW,287,6.2,11.5,8,0.00,CLR,,0.00,WeatherDisplay:10.37,2013-05-16 22:50:00,
2013-05-16 18:51:00,78.1,14.6,29.94,WNW,295,6.0,9.2,9,0.00,CLR,,0.00,WeatherDisplay:10.37,2013-05-16 22:51:00,
2013-05-16 18:52:00,78.1,11.9,29.94,WSW,256,5.7,9.2,8,0.00,CLR,,0.00,WeatherDisplay:10.37,2013-05-16 22:52:00,
2013-05-16 18:53:00,78.5,14.9,29.94,NNW,335,2.7,9.2,9,0.00,CLR,,0.00,WeatherDisplay:10.37,2013-05-16 22:53:00,
2013-05-16 18:55:00,78.9,15.2,29.94,SW,229,2.3,9.2,9,0.00,CLR,,0.00,WeatherDisplay:10.37,2013-05-16 22:55:00,
2013-05-16 18:56:00,79.2,12.8,29.94,SSW,212,0.4,3.0,8,0.00,CLR,,0.00,WeatherDisplay:10.37,2013-05-16 22:56:00,
2013-05-16 18:57:00,77.7,14.3,29.95,SSW,212,0.4,0.0,9,0.00,CLR,,0.00,WeatherDisplay:10.37,2013-05-16 22:57:00,
2013-05-16 18:58:00,78.4,14.8,29.95,SW,217,0.2,2.3,9,0.00,CLR,,0.00,WeatherDisplay:10.37,2013-05-16 22:58:00,
2013-05-16 19:00:00,78.9,15.2,29.95,WNW,296,4.6,5.8,9,0.00,CLR,,0.00,WeatherDisplay:10.37,2013-05-16 23:00:00,
2013-05-16 19:02:00,78.3,14.8,29.95,SW,224,0.0,3.5,9,0.00,CLR,,0.00,WeatherDisplay:10.37,2013-05-16 23:02:00,
2013-05-16 19:03:00,78.8,17.6,29.95,SW,224,0.4,2.3,10,0.00,CLR,,0.00,WeatherDisplay:10.37,2013-05-16 23:03:00,
2013-05-16 19:05:00,79.1,15.4,29.95,WNW,295,2.7,5.8,9,0.00,CLR,,0.00,WeatherDisplay:10.37,2013-05-16 23:05:00,
2013-05-16 19:07:00,77.4,16.5,29.95,WNW,291,6.5,12.7,10,0.00,CLR,,0.00,WeatherDisplay:10.37,2013-05-16 23:07:00,
2013-05-16 19:08:00,77.9,19.1,29.95,WSW,244,1.3,6.9,11,0.00,CLR,,0.00,WeatherDisplay:10.37,2013-05-16 23:08:00,
2013-05-16 19:11:00,77.4,18.7,29.95,WNW,282,3.3,8.1,11,0.00,CLR,,0.00,WeatherDisplay:10.37,2013-05-16 23:11:00,
2013-05-16 19:12:00,77.7,16.7,29.95,NW,325,4.7,8.1,10,0.00,CLR,,0.00,WeatherDisplay:10.37,2013-05-16 23:12:00,
2013-05-16 19:13:00,77.7,16.7,29.95,West,260,5.0,8.1,10,0.00,CLR,,0.00,WeatherDisplay:10.37,2013-05-16 23:13:00,
2013-05-16 19:14:00,77.2,16.4,29.95,West,271,6.9,9.2,10,0.00,CLR,,0.00,WeatherDisplay:10.37,2013-05-16 23:14:00,
2013-05-16 19:16:00,77.2,20.6,29.95,NW,326,5.0,9.2,12,0.00,CLR,,0.00,WeatherDisplay:10.37,2013-05-16 23:16:00,
2013-05-16 19:17:00,77.5,20.8,29.95,SSW,212,3.9,9.4,12,0.00,CLR,,0.00,WeatherDisplay:10.37,2013-05-16 23:17:00,
2013-05-16 19:19:00,77.0,18.4,29.96,WNW,298,4.2,11.4,11,0.00,CLR,,0.00,WeatherDisplay:10.37,2013-05-16 23:19:00,
2013-05-16 19:21:00,77.8,21.1,29.96,WSW,241,7.3,15.0,12,0.00,CLR,,0.00,WeatherDisplay:10.37,2013-05-16 23:21:00,
2013-05-16 19:22:00,76.9,20.4,29.96,North,10,3.8,12.7,12,0.00,CLR,,0.00,WeatherDisplay:10.37,2013-05-16 23:22:00,
2013-05-16 19:23:00,77.9,21.2,29.96,West,275,6.5,9.2,12,0.00,CLR,,0.00,WeatherDisplay:10.37,2013-05-16 23:23:00,
2013-05-16 19:24:00,77.1,20.5,29.96,West,277,1.8,8.1,12,0.00,CLR,,0.00,WeatherDisplay:10.37,2013-05-16 23:24:00,
2013-05-16 19:26:00,77.2,20.6,29.96,West,274,1.5,8.1,12,0.00,CLR,,0.00,WeatherDisplay:10.37,2013-05-16 23:26:00,
2013-05-16 19:27:00,77.4,20.8,29.96,WNW,292,3.7,7.0,12,0.00,CLR,,0.00,WeatherDisplay:10.37,2013-05-16 23:27:00,
2013-05-16 19:28:00,77.2,20.6,29.96,WNW,282,5.4,8.1,12,0.00,CLR,,0.00,WeatherDisplay:10.37,2013-05-16 23:28:00,
2013-05-16 19:29:00,77.0,20.5,29.96,WSW,246,6.5,9.2,12,0.00,CLR,,0.00,WeatherDisplay:10.37,2013-05-16 23:29:00,
2013-05-16 19:31:00,77.1,20.5,29.96,West,275,1.9,4.6,12,0.00,CLR,,0.00,WeatherDisplay:10.37,2013-05-16 23:31:00,
2013-05-16 19:33:00,77.8,21.1,29.96,West,263,3.0,6.5,12,0.00,CLR,,0.00,WeatherDisplay:10.37,2013-05-16 23:33:00,
2013-05-16 19:34:00,77.0,20.5,29.96,West,272,4.8,12.7,12,0.00,CLR,,0.00,WeatherDisplay:10.37,2013-05-16 23:34:00,
2013-05-16 19:36:00,77.0,20.5,29.96,WNW,284,6.9,15.4,12,0.00,CLR,,0.00,WeatherDisplay:10.37,2013-05-16 23:36:00,
2013-05-16 19:38:00,77.2,20.6,29.97,WNW,301,5.1,12.7,12,0.00,CLR,,0.00,WeatherDisplay:10.37,2013-05-16 23:38:00,
2013-05-16 19:40:00,77.0,20.5,29.97,WNW,291,4.6,8.1,12,0.00,CLR,,0.00,WeatherDisplay:10.37,2013-05-16 23:40:00,
2013-05-16 19:41:00,77.0,20.5,29.97,West,264,5.0,8.1,12,0.00,CLR,,0.00,WeatherDisplay:10.37,2013-05-16 23:41:00,
2013-05-16 19:43:00,76.7,20.2,29.97,WNW,285,7.4,10.4,12,0.00,CLR,,0.00,WeatherDisplay:10.37,2013-05-16 23:43:00,
2013-05-16 19:45:00,77.4,20.8,29.97,West,277,4.6,8.1,12,0.00,CLR,,0.00,WeatherDisplay:10.37,2013-05-16 23:45:00,
2013-05-16 19:47:00,77.7,21.0,29.97,NNW,346,3.5,10.4,12,0.00,CLR,,0.00,WeatherDisplay:10.37,2013-05-16 23:47:00,
2013-05-16 19:48:00,76.9,20.4,29.97,NNW,333,2.2,11.5,12,0.00,CLR,,0.00,WeatherDisplay:10.37,2013-05-16 23:48:00,
2013-05-16 19:50:00,77.2,22.5,29.97,NNW,340,7.5,13.8,13,0.00,CLR,,0.00,WeatherDisplay:10.37,2013-05-16 23:50:00,
2013-05-16 19:51:00,77.0,20.5,29.97,WNW,288,6.3,8.3,12,0.00,CLR,,0.00,WeatherDisplay:10.37,2013-05-16 23:51:00,
2013-05-16 19:52:00,77.1,22.4,29.97,WSW,247,3.5,9.9,13,0.00,CLR,,0.00,WeatherDisplay:10.37,2013-05-16 23:52:00,
2013-05-16 19:53:00,76.8,20.3,29.97,West,280,5.2,10.4,12,0.00,CLR,,0.00,WeatherDisplay:10.37,2013-05-16 23:53:00,
2013-05-16 19:54:00,77.2,22.5,29.97,West,278,6.0,13.2,13,0.00,CLR,,0.00,WeatherDisplay:10.37,2013-05-16 23:54:00,
2013-05-16 19:55:00,76.9,22.3,29.98,NW,325,6.9,16.1,13,0.00,CLR,,0.00,WeatherDisplay:10.37,2013-05-16 23:55:00,
2013-05-16 19:56:00,76.9,20.4,29.98,WNW,295,4.0,10.4,12,0.00,CLR,,0.00,WeatherDisplay:10.37,2013-05-16 23:56:00,
2013-05-16 19:57:00,76.6,22.0,29.98,West,271,5.1,6.9,13,0.00,CLR,,0.00,WeatherDisplay:10.37,2013-05-16 23:57:00,
2013-05-16 19:59:00,76.8,22.2,29.98,WNW,287,6.2,9.2,13,0.00,CLR,,0.00,WeatherDisplay:10.37,2013-05-16 23:59:00,
2013-05-16 20:00:00,76.7,22.1,29.98,West,268,4.2,9.2,13,0.00,CLR,,0.00,WeatherDisplay:10.37,2013-05-17 00:00:00,
2013-05-16 20:01:00,76.6,22.0,29.98,North,359,2.5,5.8,13,0.00,CLR,,0.00,WeatherDisplay:10.37,2013-05-17 00:01:00,
2013-05-16 20:03:00,76.6,23.8,29.98,NNW,340,5.1,6.9,14,0.00,CLR,,0.00,WeatherDisplay:10.37,2013-05-17 00:03:00,
2013-05-16 20:04:00,76.8,24.0,29.98,WNW,299,5.0,9.2,14,0.00,CLR,,0.00,WeatherDisplay:10.37,2013-05-17 00:04:00,
2013-05-16 20:05:00,76.7,23.9,29.98,NW,323,5.3,6.9,14,0.00,CLR,,0.00,WeatherDisplay:10.37,2013-05-17 00:05:00,
2013-05-16 20:06:00,76.6,23.8,29.98,WNW,299,6.1,8.6,14,0.00,CLR,,0.00,WeatherDisplay:10.37,2013-05-17 00:06:00,
2013-05-16 20:09:00,76.5,23.7,29.98,NNW,332,1.4,5.8,14,0.00,CLR,,0.00,WeatherDisplay:10.37,2013-05-17 00:09:00,
2013-05-16 20:10:00,76.7,23.9,29.98,WNW,292,7.9,10.4,14,0.00,CLR,,0.00,WeatherDisplay:10.37,2013-05-17 00:10:00,
2013-05-16 20:11:00,76.7,25.5,29.98,NW,322,6.5,11.5,15,0.00,CLR,,0.00,WeatherDisplay:10.37,2013-05-17 00:11:00,
2013-05-16 20:14:00,76.6,23.8,29.99,NW,311,6.7,12.7,14,0.00,CLR,,0.00,WeatherDisplay:10.37,2013-05-17 00:14:00,
2013-05-16 20:15:00,76.7,22.1,29.99,North,3,11.8,19.6,13,0.00,CLR,,0.00,WeatherDisplay:10.37,2013-05-17 00:15:00,
2013-05-16 20:16:00,76.3,19.9,30.00,North,356,9.5,19.6,12,0.00,CLR,,0.00,WeatherDisplay:10.37,2013-05-17 00:16:00,
2013-05-16 20:19:00,75.9,21.5,30.00,North,7,8.1,16.1,13,0.00,CLR,,0.00,WeatherDisplay:10.37,2013-05-17 00:19:00,
2013-05-16 20:20:00,75.9,21.5,30.00,NNW,343,11.4,18.4,13,0.00,CLR,,0.00,WeatherDisplay:10.37,2013-05-17 00:20:00,
2013-05-16 20:21:00,75.8,21.4,30.00,NW,320,9.5,18.4,13,0.00,CLR,,0.00,WeatherDisplay:10.37,2013-05-17 00:21:00,
2013-05-16 20:24:00,75.3,22.8,30.00,NNE,14,8.6,12.7,14,0.00,CLR,,0.00,WeatherDisplay:10.37,2013-05-17 00:24:00,
2013-05-16 20:25:00,75.1,24.3,30.00,North,357,6.6,10.4,15,0.00,CLR,,0.00,WeatherDisplay:10.37,2013-05-17 00:25:00,
2013-05-16 20:26:00,74.8,24.0,30.00,NW,318,6.6,10.4,15,0.00,CLR,,0.00,WeatherDisplay:10.37,2013-05-17 00:26:00,
2013-05-16 20:29:00,74.6,25.4,30.00,NNW,346,7.2,7.2,16,0.00,CLR,,0.00,WeatherDisplay:10.37,2013-05-17 00:29:00,
2013-05-16 20:31:00,74.6,25.4,30.00,NW,311,9.3,13.8,16,0.00,CLR,,0.00,WeatherDisplay:10.37,2013-05-17 00:31:00,
2013-05-16 20:34:00,74.4,28.1,30.00,NNW,337,4.9,15.7,18,0.00,CLR,,0.00,WeatherDisplay:10.37,2013-05-17 00:34:00,
2013-05-16 20:35:00,74.3,28.0,30.00,NNW,333,8.8,16.1,18,0.00,CLR,,0.00,WeatherDisplay:10.37,2013-05-17 00:35:00,
2013-05-16 20:36:00,74.2,26.5,30.00,NNW,328,9.3,13.8,17,0.00,CLR,,0.00,WeatherDisplay:10.37,2013-05-17 00:36:00,
2013-05-16 20:39:00,73.9,27.7,30.00,NW,322,6.8,12.5,18,0.00,CLR,,0.00,WeatherDisplay:10.37,2013-05-17 00:39:00,
2013-05-16 20:40:00,73.8,28.9,30.00,North,353,7.8,13.8,19,0.00,CLR,,0.00,WeatherDisplay:10.37,2013-05-17 00:40:00,
2013-05-16 20:41:00,73.9,29.0,30.01,WNW,302,5.1,10.4,19,0.00,CLR,,0.00,WeatherDisplay:10.37,2013-05-17 00:41:00,
2013-05-16 20:44:00,73.4,31.1,30.01,NNE,31,6.9,11.5,21,0.00,CLR,,0.00,WeatherDisplay:10.37,2013-05-17 00:44:00,
2013-05-16 20:45:00,73.1,29.6,30.01,NNE,17,8.2,11.5,20,0.00,CLR,,0.00,WeatherDisplay:10.37,2013-05-17 00:45:00,
2013-05-16 20:46:00,73.2,29.7,30.01,North,349,6.9,16.1,20,0.00,CLR,,0.00,WeatherDisplay:10.37,2013-05-17 00:46:00,
2013-05-16 20:47:00,73.0,30.7,30.01,NW,308,6.6,11.5,21,0.00,CLR,,0.00,WeatherDisplay:10.37,2013-05-17 00:47:00,
2013-05-16 20:49:00,73.0,30.7,30.01,NNW,330,4.9,10.4,21,0.00,CLR,,0.00,WeatherDisplay:10.37,2013-05-17 00:49:00,
2013-05-16 20:50:00,73.2,30.9,30.01,WNW,291,2.7,10.4,21,0.00,CLR,,0.00,WeatherDisplay:10.37,2013-05-17 00:50:00,
2013-05-16 20:51:00,73.2,30.9,30.01,NW,318,2.9,6.0,21,0.00,CLR,,0.00,WeatherDisplay:10.37,2013-05-17 00:51:00,
2013-05-16 20:52:00,73.0,29.5,30.01,NW,305,4.1,8.1,20,0.00,CLR,,0.00,WeatherDisplay:10.37,2013-05-17 00:52:00,
2013-05-16 20:54:00,72.4,30.2,30.01,NW,325,7.8,15.0,21,0.00,CLR,,0.00,WeatherDisplay:10.37,2013-05-17 00:54:00,
2013-05-16 20:55:00,72.6,31.5,30.01,WNW,301,5.8,15.0,22,0.00,CLR,,0.00,WeatherDisplay:10.37,2013-05-17 00:55:00,
2013-05-16 20:56:00,72.7,30.5,30.01,NNW,335,6.4,12.6,21,0.00,CLR,,0.00,WeatherDisplay:10.37,2013-05-17 00:56:00,
2013-05-16 20:57:00,72.6,31.5,30.01,North,7,6.7,11.5,22,0.00,CLR,,0.00,WeatherDisplay:10.37,2013-05-17 00:57:00,
2013-05-16 21:00:00,72.4,31.4,30.02,North,357,6.9,12.6,22,0.00,CLR,,0.00,WeatherDisplay:10.37,2013-05-17 01:00:00,
2013-05-16 21:01:00,72.2,31.2,30.01,NW,316,9.0,12.7,22,0.00,CLR,,0.00,WeatherDisplay:10.37,2013-05-17 01:01:00,
2013-05-16 21:02:00,72.4,31.4,30.01,West,272,6.2,12.7,22,0.00,CLR,,0.00,WeatherDisplay:10.37,2013-05-17 01:02:00,
2013-05-16 21:05:00,72.2,31.2,30.02,WNW,289,3.9,9.2,22,0.00,CLR,,0.00,WeatherDisplay:10.37,2013-05-17 01:05:00,
2013-05-16 21:06:00,72.3,32.4,30.02,NNW,330,4.7,10.4,23,0.00,CLR,,0.00,WeatherDisplay:10.37,2013-05-17 01:06:00,
2013-05-16 21:07:00,72.4,32.5,30.02,North,11,2.9,5.8,23,0.00,CLR,,0.00,WeatherDisplay:10.37,2013-05-17 01:07:00,
2013-05-16 21:10:00,72.1,32.2,30.02,NW,306,3.6,5.8,23,0.00,CLR,,0.00,WeatherDisplay:10.37,2013-05-17 01:10:00,
2013-05-16 21:11:00,71.9,32.1,30.02,WNW,284,3.3,8.2,23,0.00,CLR,,0.00,WeatherDisplay:10.37,2013-05-17 01:11:00,
2013-05-16 21:12:00,72.1,32.2,30.02,NW,304,5.5,9.2,23,0.00,CLR,,0.00,WeatherDisplay:10.37,2013-05-17 01:12:00,
2013-05-16 21:15:00,72.0,33.2,30.02,WNW,289,1.5,6.9,24,0.00,CLR,,0.00,WeatherDisplay:10.37,2013-05-17 01:15:00,
2013-05-16 21:16:00,71.9,33.1,30.02,West,281,1.1,5.8,24,0.00,CLR,,0.00,WeatherDisplay:10.37,2013-05-17 01:16:00,
2013-05-16 21:17:00,71.7,33.0,30.02,West,281,0.0,3.5,24,0.00,CLR,,0.00,WeatherDisplay:10.37,2013-05-17 01:17:00,
2013-05-16 21:20:00,71.9,33.1,30.02,WNW,298,0.3,0.0,24,0.00,CLR,,0.00,WeatherDisplay:10.37,2013-05-17 01:20:00,
2013-05-16 21:21:00,71.9,33.1,30.02,North,360,0.6,3.5,24,0.00,CLR,,0.00,WeatherDisplay:10.37,2013-05-17 01:21:00,
2013-05-16 21:22:00,72.0,33.2,30.03,North,354,0.4,4.2,24,0.00,CLR,,0.00,WeatherDisplay:10.37,2013-05-17 01:22:00,
2013-05-16 21:23:00,71.7,33.0,30.03,North,1,1.2,5.0,24,0.00,CLR,,0.00,WeatherDisplay:10.37,2013-05-17 01:23:00,
2013-05-16 21:25:00,71.8,33.0,30.03,NNW,343,0.0,0.0,24,0.00,CLR,,0.00,WeatherDisplay:10.37,2013-05-17 01:25:00,
2013-05-16 21:26:00,71.8,33.0,30.03,NNW,343,0.0,0.0,24,0.00,CLR,,0.00,WeatherDisplay:10.37,2013-05-17 01:26:00,
2013-05-16 21:27:00,71.8,33.0,30.03,NNW,343,0.0,0.0,24,0.00,CLR,,0.00,WeatherDisplay:10.37,2013-05-17 01:27:00,
2013-05-16 21:28:00,71.9,33.1,30.03,NNW,343,0.0,0.0,24,0.00,CLR,,0.00,WeatherDisplay:10.37,2013-05-17 01:28:00,
2013-05-16 21:31:00,71.6,33.9,30.03,NNW,343,0.0,0.0,25,0.00,CLR,,0.00,WeatherDisplay:10.37,2013-05-17 01:31:00,
2013-05-16 21:32:00,71.8,34.1,30.03,NNW,343,0.0,0.0,25,0.00,CLR,,0.00,WeatherDisplay:10.37,2013-05-17 01:32:00,
2013-05-16 21:33:00,71.9,34.1,30.03,NNW,343,0.0,0.0,25,0.00,CLR,,0.00,WeatherDisplay:10.37,2013-05-17 01:33:00,
2013-05-16 21:36:00,71.5,34.8,30.03,WNW,288,0.8,5.8,26,0.00,CLR,,0.00,WeatherDisplay:10.37,2013-05-17 01:36:00,
2013-05-16 21:37:00,71.8,35.0,30.03,WNW,291,3.3,5.8,26,0.00,CLR,,0.00,WeatherDisplay:10.37,2013-05-17 01:37:00,
2013-05-16 21:38:00,71.7,35.9,30.03,WNW,282,0.0,5.8,27,0.00,CLR,,0.00,WeatherDisplay:10.37,2013-05-17 01:38:00,
2013-05-16 21:41:00,71.2,36.4,30.03,WNW,282,0.0,0.0,28,0.00,CLR,,0.00,WeatherDisplay:10.37,2013-05-17 01:41:00,
2013-05-16 21:42:00,71.5,36.7,30.03,WNW,282,0.0,0.0,28,0.00,CLR,,0.00,WeatherDisplay:10.37,2013-05-17 01:42:00,
2013-05-16 21:43:00,71.5,36.7,30.03,WNW,282,0.0,0.0,28,0.00,CLR,,0.00,WeatherDisplay:10.37,2013-05-17 01:43:00,
2013-05-16 21:46:00,71.4,36.6,30.03,WNW,282,0.0,0.0,28,0.00,CLR,,0.00,WeatherDisplay:10.37,2013-05-17 01:46:00,
2013-05-16 21:47:00,71.4,37.5,30.03,WNW,282,0.0,0.0,29,0.00,CLR,,0.00,WeatherDisplay:10.37,2013-05-17 01:47:00,
2013-05-16 21:48:00,71.2,36.4,30.03,WNW,282,0.0,0.0,28,0.00,CLR,,0.00,WeatherDisplay:10.37,2013-05-17 01:48:00,
2013-05-16 21:51:00,71.1,37.2,30.03,WNW,282,0.0,0.0,29,0.00,CLR,,0.00,WeatherDisplay:10.37,2013-05-17 01:51:00,
2013-05-16 21:53:00,71.1,38.1,30.03,WNW,288,0.0,3.5,30,0.00,CLR,,0.00,WeatherDisplay:10.37,2013-05-17 01:53:00,
2013-05-16 21:54:00,71.0,38.0,30.03,WNW,288,0.0,0.0,30,0.00,CLR,,0.00,WeatherDisplay:10.37,2013-05-17 01:54:00,
2013-05-16 21:56:00,71.1,38.1,30.03,WNW,288,0.0,0.0,30,0.00,CLR,,0.00,WeatherDisplay:10.37,2013-05-17 01:56:00,
2013-05-16 21:58:00,70.9,37.9,30.03,WNW,288,0.0,0.0,30,0.00,CLR,,0.00,WeatherDisplay:10.37,2013-05-17 01:58:00,
2013-05-16 21:59:00,70.9,37.9,30.03,WNW,288,0.0,0.0,30,0.00,CLR,,0.00,WeatherDisplay:10.37,2013-05-17 01:59:00,
2013-05-16 22:01:00,70.7,38.6,30.03,WNW,299,0.0,3.5,31,0.00,CLR,,0.00,WeatherDisplay:10.37,2013-05-17 02:01:00,
2013-05-16 22:03:00,70.9,38.7,30.04,WNW,299,0.0,0.0,31,0.00,CLR,,0.00,WeatherDisplay:10.37,2013-05-17 02:03:00,
2013-05-16 22:05:00,70.6,38.5,30.03,NNW,343,0.7,5.5,31,0.00,CLR,,0.00,WeatherDisplay:10.37,2013-05-17 02:05:00,
2013-05-16 22:06:00,70.4,39.1,30.03,North,352,1.8,5.8,32,0.00,CLR,,0.00,WeatherDisplay:10.37,2013-05-17 02:06:00,
2013-05-16 22:08:00,70.3,39.0,30.03,NW,308,1.6,5.8,32,0.00,CLR,,0.00,WeatherDisplay:10.37,2013-05-17 02:08:00,
2013-05-16 22:10:00,70.3,39.0,30.03,NW,308,0.0,0.0,32,0.00,CLR,,0.00,WeatherDisplay:10.37,2013-05-17 02:10:00,
2013-05-16 22:12:00,70.6,39.3,30.04,NW,308,0.0,0.0,32,0.00,CLR,,0.00,WeatherDisplay:10.37,2013-05-17 02:12:00,
2013-05-16 22:13:00,70.1,38.9,30.04,NW,308,0.0,0.0,32,0.00,CLR,,0.00,WeatherDisplay:10.37,2013-05-17 02:13:00,
2013-05-16 22:14:00,70.2,38.9,30.04,NW,308,0.0,0.0,32,0.00,CLR,,0.00,WeatherDisplay:10.37,2013-05-17 02:14:00,
2013-05-16 22:15:00,70.5,39.2,30.04,NW,308,0.0,0.0,32,0.00,CLR,,0.00,WeatherDisplay:10.37,2013-05-17 02:15:00,
2013-05-16 22:17:00,70.0,39.6,30.03,NW,308,0.0,0.0,33,0.00,CLR,,0.00,WeatherDisplay:10.37,2013-05-17 02:17:00,
2013-05-16 22:18:00,70.2,39.7,30.03,NW,308,0.0,0.0,33,0.00,CLR,,0.00,WeatherDisplay:10.37,2013-05-17 02:18:00,
2013-05-16 22:19:00,70.2,39.7,30.03,NW,308,0.0,0.0,33,0.00,CLR,,0.00,WeatherDisplay:10.37,2013-05-17 02:19:00,
2013-05-16 22:20:00,70.0,39.6,30.03,NW,308,0.0,0.0,33,0.00,CLR,,0.00,WeatherDisplay:10.37,2013-05-17 02:20:00,
2013-05-16 22:22:00,70.0,40.3,30.04,NW,308,0.0,0.0,34,0.00,CLR,,0.00,WeatherDisplay:10.37,2013-05-17 02:22:00,
2013-05-16 22:23:00,70.0,40.3,30.03,NW,308,0.0,0.0,34,0.00,CLR,,0.00,WeatherDisplay:10.37,2013-05-17 02:23:00,
2013-05-16 22:24:00,69.9,39.5,30.03,NW,308,0.0,0.0,33,0.00,CLR,,0.00,WeatherDisplay:10.37,2013-05-17 02:24:00,
2013-05-16 22:25:00,70.2,39.7,30.03,NW,308,0.0,0.0,33,0.00,CLR,,0.00,WeatherDisplay:10.37,2013-05-17 02:25:00,
2013-05-16 22:27:00,70.2,39.7,30.03,NW,308,0.0,0.0,33,0.00,CLR,,0.00,WeatherDisplay:10.37,2013-05-17 02:27:00,
2013-05-16 22:28:00,70.2,39.7,30.03,NW,308,0.0,0.0,33,0.00,CLR,,0.00,WeatherDisplay:10.37,2013-05-17 02:28:00,
2013-05-16 22:29:00,69.7,40.1,30.03,NW,308,0.0,0.0,34,0.00,CLR,,0.00,WeatherDisplay:10.37,2013-05-17 02:29:00,
2013-05-16 22:30:00,70.0,40.3,30.03,NW,308,0.0,0.0,34,0.00,CLR,,0.00,WeatherDisplay:10.37,2013-05-17 02:30:00,
2013-05-16 22:32:00,70.1,40.4,30.03,NW,308,0.0,0.0,34,0.00,CLR,,0.00,WeatherDisplay:10.37,2013-05-17 02:32:00,
2013-05-16 22:33:00,70.0,40.3,30.03,NW,308,0.0,0.0,34,0.00,CLR,,0.00,WeatherDisplay:10.37,2013-05-17 02:33:00,
2013-05-16 22:34:00,70.2,40.5,30.03,NW,308,0.0,0.0,34,0.00,CLR,,0.00,WeatherDisplay:10.37,2013-05-17 02:34:00,
2013-05-16 22:35:00,70.0,40.3,30.03,NW,308,0.0,0.0,34,0.00,CLR,,0.00,WeatherDisplay:10.37,2013-05-17 02:35:00,
2013-05-16 22:37:00,70.1,40.4,30.03,NW,308,0.0,0.0,34,0.00,CLR,,0.00,WeatherDisplay:10.37,2013-05-17 02:37:00,
2013-05-16 22:38:00,70.0,39.6,30.03,NW,308,0.0,0.0,33,0.00,CLR,,0.00,WeatherDisplay:10.37,2013-05-17 02:38:00,
2013-05-16 22:40:00,70.0,39.6,30.03,NW,308,0.0,0.0,33,0.00,CLR,,0.00,WeatherDisplay:10.37,2013-05-17 02:40:00,
2013-05-16 22:41:00,70.2,39.7,30.03,NW,308,0.0,0.0,33,0.00,CLR,,0.00,WeatherDisplay:10.37,2013-05-17 02:41:00,
2013-05-16 22:42:00,69.8,39.4,30.03,NW,308,0.0,0.0,33,0.00,CLR,,0.00,WeatherDisplay:10.37,2013-05-17 02:42:00,
2013-05-16 22:43:00,70.2,39.7,30.03,NW,308,0.0,0.0,33,0.00,CLR,,0.00,WeatherDisplay:10.37,2013-05-17 02:43:00,
2013-05-16 22:45:00,70.4,39.9,30.03,NW,308,0.0,0.0,33,0.00,CLR,,0.00,WeatherDisplay:10.37,2013-05-17 02:45:00,
2013-05-16 22:46:00,70.1,40.4,30.03,NW,308,0.0,0.0,34,0.00,CLR,,0.00,WeatherDisplay:10.37,2013-05-17 02:46:00,
2013-05-16 22:47:00,70.0,40.3,30.03,NW,308,0.0,0.0,34,0.00,CLR,,0.00,WeatherDisplay:10.37,2013-05-17 02:47:00,
2013-05-16 22:49:00,70.4,40.7,30.03,NW,308,0.0,0.0,34,0.00,CLR,,0.00,WeatherDisplay:10.37,2013-05-17 02:49:00,
2013-05-16 22:51:00,69.7,40.8,30.03,NW,308,0.0,0.0,35,0.00,CLR,,0.00,WeatherDisplay:10.37,2013-05-17 02:51:00,
2013-05-16 22:52:00,69.5,40.6,30.03,NW,308,0.0,0.0,35,0.00,CLR,,0.00,WeatherDisplay:10.37,2013-05-17 02:52:00,
2013-05-16 22:53:00,69.7,41.5,30.03,NW,308,0.0,0.0,36,0.00,CLR,,0.00,WeatherDisplay:10.37,2013-05-17 02:53:00,
2013-05-16 22:56:00,69.5,41.4,30.03,NW,308,0.0,0.0,36,0.00,CLR,,0.00,WeatherDisplay:10.37,2013-05-17 02:56:00,
2013-05-16 22:57:00,69.3,41.2,30.03,NW,308,0.0,0.0,36,0.00,CLR,,0.00,WeatherDisplay:10.37,2013-05-17 02:57:00,
2013-05-16 22:59:00,69.2,41.8,30.03,NW,308,0.0,0.0,37,0.00,CLR,,0.00,WeatherDisplay:10.37,2013-05-17 02:59:00,
2013-05-16 23:01:00,69.1,41.7,30.03,NW,308,0.0,0.0,37,0.00,CLR,,0.00,WeatherDisplay:10.37,2013-05-17 03:01:00,
2013-05-16 23:02:00,69.2,42.5,30.03,NW,308,0.0,0.0,38,0.00,CLR,,0.00,WeatherDisplay:10.37,2013-05-17 03:02:00,
2013-05-16 23:04:00,69.2,42.5,30.03,NW,308,0.0,0.0,38,0.00,CLR,,0.00,WeatherDisplay:10.37,2013-05-17 03:04:00,
2013-05-16 23:06:00,69.2,42.5,30.03,NW,308,0.0,0.0,38,0.00,CLR,,0.00,WeatherDisplay:10.37,2013-05-17 03:06:00,
2013-05-16 23:07:00,68.7,42.1,30.03,NW,308,0.0,0.0,38,0.00,CLR,,0.00,WeatherDisplay:10.37,2013-05-17 03:07:00,
2013-05-16 23:09:00,68.6,41.3,30.03,WNW,292,0.0,3.5,37,0.00,CLR,,0.00,WeatherDisplay:10.37,2013-05-17 03:09:00,
2013-05-16 23:11:00,69.0,41.6,30.03,NNW,342,4.1,5.8,37,0.00,CLR,,0.00,WeatherDisplay:10.37,2013-05-17 03:11:00,
2013-05-16 23:12:00,69.1,41.7,30.03,North,360,1.0,3.2,37,0.00,CLR,,0.00,WeatherDisplay:10.37,2013-05-17 03:12:00,
2013-05-16 23:13:00,68.8,40.7,30.03,North,360,1.3,0.0,36,0.00,CLR,,0.00,WeatherDisplay:10.37,2013-05-17 03:13:00,
2013-05-16 23:14:00,69.0,41.6,30.03,NNW,336,1.1,4.6,37,0.00,CLR,,0.00,WeatherDisplay:10.37,2013-05-17 03:14:00,
2013-05-16 23:16:00,69.0,40.9,30.03,NW,304,0.3,3.2,36,0.00,CLR,,0.00,WeatherDisplay:10.37,2013-05-17 03:16:00,
2013-05-16 23:17:00,69.2,41.8,30.03,NW,304,0.0,3.5,37,0.00,CLR,,0.00,WeatherDisplay:10.37,2013-05-17 03:17:00,
2013-05-16 23:18:00,69.1,41.0,30.03,NW,304,0.0,3.5,36,0.00,CLR,,0.00,WeatherDisplay:10.37,2013-05-17 03:18:00,
2013-05-16 23:20:00,68.7,41.4,30.03,West,260,0.0,2.3,37,0.00,CLR,,0.00,WeatherDisplay:10.37,2013-05-17 03:20:00,
2013-05-16 23:21:00,69.0,41.6,30.03,West,260,0.0,0.0,37,0.00,CLR,,0.00,WeatherDisplay:10.37,2013-05-17 03:21:00,
2013-05-16 23:23:00,69.3,41.9,30.03,West,260,0.0,0.0,37,0.00,CLR,,0.00,WeatherDisplay:10.37,2013-05-17 03:23:00,
2013-05-16 23:25:00,68.9,41.5,30.03,West,260,0.0,0.0,37,0.00,CLR,,0.00,WeatherDisplay:10.37,2013-05-17 03:25:00,
2013-05-16 23:27:00,69.2,41.8,30.03,West,271,0.3,0.0,37,0.00,CLR,,0.00,WeatherDisplay:10.37,2013-05-17 03:27:00,
2013-05-16 23:28:00,69.2,42.5,30.03,West,271,0.0,2.3,38,0.00,CLR,,0.00,WeatherDisplay:10.37,2013-05-17 03:28:00,
2013-05-16 23:29:00,69.1,41.7,30.03,West,278,0.0,3.4,37,0.00,CLR,,0.00,WeatherDisplay:10.37,2013-05-17 03:29:00,
2013-05-16 23:30:00,68.7,41.4,30.03,West,270,0.0,3.5,37,0.00,CLR,,0.00,WeatherDisplay:10.37,2013-05-17 03:30:00,
2013-05-16 23:32:00,68.7,41.4,30.03,West,270,0.0,0.0,37,0.00,CLR,,0.00,WeatherDisplay:10.37,2013-05-17 03:32:00,
2013-05-16 23:33:00,68.9,41.5,30.03,West,270,0.0,0.0,37,0.00,CLR,,0.00,WeatherDisplay:10.37,2013-05-17 03:33:00,
2013-05-16 23:34:00,68.8,42.1,30.03,West,270,0.0,0.0,38,0.00,CLR,,0.00,WeatherDisplay:10.37,2013-05-17 03:34:00,
2013-05-16 23:35:00,68.9,42.2,30.03,West,270,0.0,0.0,38,0.00,CLR,,0.00,WeatherDisplay:10.37,2013-05-17 03:35:00,
2013-05-16 23:37:00,69.3,41.9,30.03,West,270,0.0,0.0,37,0.00,CLR,,0.00,WeatherDisplay:10.37,2013-05-17 03:37:00,
2013-05-16 23:38:00,68.9,42.2,30.03,West,270,0.0,0.0,38,0.00,CLR,,0.00,WeatherDisplay:10.37,2013-05-17 03:38:00,
2013-05-16 23:39:00,68.9,42.2,30.03,NW,312,1.9,4.6,38,0.00,CLR,,0.00,WeatherDisplay:10.37,2013-05-17 03:39:00,
2013-05-16 23:41:00,68.5,42.6,30.03,NW,320,0.4,3.5,39,0.00,CLR,,0.00,WeatherDisplay:10.37,2013-05-17 03:41:00,
2013-05-16 23:42:00,68.5,42.6,30.03,NW,320,0.0,0.0,39,0.00,CLR,,0.00,WeatherDisplay:10.37,2013-05-17 03:42:00,
2013-05-16 23:43:00,68.6,42.6,30.03,NW,315,0.1,2.0,39,0.00,CLR,,0.00,WeatherDisplay:10.37,2013-05-17 03:43:00,
2013-05-16 23:45:00,68.5,42.6,30.03,West,260,1.0,2.3,39,0.00,CLR,,0.00,WeatherDisplay:10.37,2013-05-17 03:45:00,
2013-05-16 23:46:00,68.4,42.5,30.03,West,260,0.0,0.0,39,0.00,CLR,,0.00,WeatherDisplay:10.37,2013-05-17 03:46:00,
2013-05-16 23:47:00,68.5,42.6,30.03,West,260,0.0,0.0,39,0.00,CLR,,0.00,WeatherDisplay:10.37,2013-05-17 03:47:00,
2013-05-16 23:48:00,68.6,42.6,30.03,West,260,0.0,0.0,39,0.00,CLR,,0.00,WeatherDisplay:10.37,2013-05-17 03:48:00,
2013-05-16 23:50:00,68.4,42.5,30.03,West,260,0.0,0.0,39,0.00,CLR,,0.00,WeatherDisplay:10.37,2013-05-17 03:50:00,
2013-05-16 23:51:00,68.5,41.9,30.03,West,260,0.0,0.0,38,0.00,CLR,,0.00,WeatherDisplay:10.37,2013-05-17 03:51:00,
2013-05-16 23:53:00,68.6,42.0,30.03,West,260,0.0,0.0,38,0.00,CLR,,0.00,WeatherDisplay:10.37,2013-05-17 03:53:00,
2013-05-16 23:54:00,68.3,42.4,30.03,West,260,0.0,0.0,39,0.00,CLR,,0.00,WeatherDisplay:10.37,2013-05-17 03:54:00,
2013-05-16 23:55:00,68.4,41.8,30.03,West,260,0.0,0.0,38,0.00,CLR,,0.00,WeatherDisplay:10.37,2013-05-17 03:55:00,
2013-05-16 23:56:00,68.4,41.8,30.03,West,260,0.0,0.0,38,0.00,CLR,,0.00,WeatherDisplay:10.37,2013-05-17 03:56:00,
2013-05-16 23:58:00,68.8,42.1,30.03,West,260,0.0,0.0,38,0.00,CLR,,0.00,WeatherDisplay:10.37,2013-05-17 03:58:00,
2013-05-16 23:59:00,68.7,41.4,30.03,West,260,0.0,0.0,37,0.00,CLR,,0.00,WeatherDisplay:10.37,2013-05-17 03:59:00,